GFSMA_925_spd_021.txt.gz
Wind_Speed
5 3 2 1 2 4 4 4 5 3 3 3 1 4 3 3 2 2 2 2 2 1 1 3 7 7 9 9 8 8 7 8 8 7 7 6 6 5 4 4 4 3 3
7 5 5 4 3 4 5 5 3 5 6 5 4 3 2 5 4 3 3 2 2 1 2 4 5 8 8 9 10 9 9 9 8 7 8 8 7 6 5 6 5 5 5
9 6 6 7 6 7 6 3 1 4 5 3 2 1 2 4 4 4 2 1 1 1 2 2 5 8 7 7 9 10 10 10 9 8 9 8 8 8 8 8 7 7 6
10 9 8 8 7 7 4 4 3 3 3 3 2 1 2 2 3 3 2 2 2 3 3 4 3 5 7 5 7 8 10 11 10 9 9 9 9 10 10 10 10 10 10
14 13 12 9 9 7 5 5 2 2 2 2 2 3 4 5 5 5 4 3 2 4 3 2 4 3 2 3 4 5 7 9 10 10 10 10 10 10 10 11 11 12 11
17 14 14 12 9 7 6 4 2 1 1 2 4 6 5 5 4 5 5 7 9 4 3 2 3 0 1 1 2 2 4 5 7 8 9 10 12 11 11 12 13 13 13
20 19 14 14 10 8 6 5 3 3 2 3 4 5 4 4 3 5 5 5 7 6 5 4 2 3 2 2 2 1 1 2 3 4 5 7 9 10 11 11 13 12 15
17 16 18 14 12 8 9 7 6 4 2 4 3 3 2 3 3 3 3 4 5 6 6 6 6 5 5 5 4 4 3 2 0 1 2 2 3 6 8 8 7 7 8
16 16 18 17 14 11 9 8 8 7 3 4 4 1 2 3 2 3 3 2 3 4 5 6 6 5 5 5 5 5 6 6 5 3 2 2 2 2 3 4 4 5 5
19 18 18 19 18 11 10 9 10 9 6 7 5 3 2 1 3 3 5 4 3 2 2 2 4 4 4 4 4 5 5 6 7 6 5 5 5 4 4 4 3 3 3
23 21 20 19 18 15 13 11 11 11 9 6 7 5 3 3 3 3 2 6 7 6 5 4 4 3 3 3 2 2 3 3 5 6 6 6 5 5 4 4 4 4 4
22 25 23 21 18 17 16 12 11 11 11 8 8 8 7 4 5 5 4 3 7 6 7 8 6 6 6 6 5 4 2 1 1 2 3 4 4 4 4 4 4 5 5
22 23 26 24 19 20 18 14 12 11 13 11 10 9 8 7 4 5 5 3 5 6 5 8 9 9 8 9 9 8 7 6 6 6 7 7 7 7 6 7 6 5 6
21 21 25 24 23 20 19 18 14 12 13 12 11 11 9 9 8 6 5 5 3 5 5 5 5 6 6 9 10 9 9 10 10 10 10 11 11 11 11 11 12 12 12
21 21 25 24 23 21 21 21 17 16 16 14 13 13 12 10 9 8 7 6 6 3 4 4 4 5 4 3 5 7 9 10 10 11 11 11 13 13 13 14 15 16 16
30 22 25 24 23 23 21 23 19 19 19 16 15 15 16 13 11 10 9 8 8 8 5 5 5 5 4 4 6 6 7 8 10 11 13 13 14 15 15 16 15 17 19
32 29 28 25 25 24 23 25 24 20 22 20 20 19 18 17 14 12 12 11 10 9 9 6 6 7 10 10 9 8 8 8 8 9 10 13 15 15 14 12 12 13 15
36 36 32 29 26 24 25 27 28 23 25 23 24 20 20 18 19 17 15 14 12 11 10 10 7 8 9 8 9 10 8 8 8 12 14 14 12 10 10 12 14 14 15
36 33 34 33 28 26 28 29 30 28 29 29 26 26 30 23 19 16 17 14 14 12 12 12 11 6 6 7 8 8 9 9 10 10 7 8 10 12 13 11 11 14 15
36 36 37 35 32 29 30 31 30 30 30 30 31 28 21 22 23 23 18 16 15 14 12 13 14 12 9 8 8 11 11 10 9 7 10 11 12 13 12 11 15 15 14
39 40 38 36 35 33 33 33 31 32 30 29 30 26 27 28 28 27 20 18 17 16 14 13 14 12 11 10 11 12 12 10 9 8 8 7 7 8 11 13 13 13 14
37 37 37 38 38 37 37 40 40 31 31 33 28 28 28 32 30 27 26 26 23 19 17 15 14 15 14 12 10 11 10 11 11 5 7 10 9 13 14 15 15 15 16
38 38 37 37 39 40 42 46 44 34 31 33 30 27 25 25 32 28 26 26 28 25 22 17 17 16 12 11 9 8 10 11 13 12 9 13 12 16 15 14 15 12 16
39 38 38 38 38 41 46 51 49 44 31 30 30 29 27 25 27 30 22 22 23 24 25 23 21 16 11 8 9 7 7 9 10 12 10 10 12 13 11 12 16 16 13
35 37 35 37 40 42 48 51 49 39 33 31 28 27 26 24 27 30 28 20 21 19 19 21 19 15 14 12 10 7 6 7 11 11 8 9 8 11 13 16 12 11 14
37 35 36 38 41 41 43 49 49 37 31 29 26 25 30 27 25 23 25 24 22 19 16 19 18 15 12 10 10 9 8 10 10 8 5 7 10 11 9 11 8 15 14

GFSMA_925_spd_024.txt.gz
Wind_Speed
2 1 1 1 2 2 2 2 2 2 1 0 1 4 6 5 3 1 5 3 4 3 1 3 8 7 8 7 7 6 6 7 5 5 5 5 4 4 4 4 3 4 4
3 2 2 1 1 1 3 3 2 2 3 3 6 4 4 7 6 2 5 6 3 2 2 3 5 8 8 8 7 7 7 6 6 6 6 7 7 6 5 5 5 5 5
5 3 3 2 2 1 2 2 2 3 4 3 4 3 3 4 6 6 3 4 6 5 4 4 5 7 6 7 8 8 8 8 8 8 8 8 9 8 7 7 7 7 8
8 6 2 3 3 1 2 1 2 5 2 1 2 1 4 6 4 4 6 1 2 8 8 6 5 7 6 4 5 7 9 9 9 10 9 10 10 9 9 9 9 9 10
10 8 6 5 4 3 1 2 1 2 3 3 1 3 4 6 5 9 6 3 4 1 7 6 6 5 5 4 4 6 8 9 10 11 11 11 11 10 10 10 9 10 10
11 10 9 5 5 3 1 2 1 2 2 3 5 7 6 6 6 6 7 8 6 4 3 2 3 5 3 4 3 3 4 6 8 9 10 10 11 11 11 10 11 11 11
11 11 11 6 6 5 1 4 3 3 3 3 7 6 6 5 5 5 5 7 5 3 2 3 4 4 3 3 3 3 3 4 5 6 6 7 8 9 9 10 10 11 11
13 13 12 9 9 4 4 4 4 3 2 5 1 1 5 8 6 4 3 4 5 6 6 4 4 3 4 5 4 3 3 3 3 3 4 3 2 2 5 5 5 6 6
13 13 11 10 9 7 6 5 5 4 2 4 4 4 3 1 7 7 5 4 4 4 5 5 5 5 4 4 4 4 4 4 3 2 1 1 1 1 2 2 2 2 2
15 13 11 10 11 8 6 4 5 5 5 4 6 6 3 5 3 5 8 6 5 5 4 3 4 5 5 4 5 5 5 5 6 5 4 4 4 3 3 2 2 2 2
17 15 13 11 11 10 8 6 6 7 6 5 7 7 6 6 5 5 3 10 9 8 7 6 4 4 4 3 3 3 4 5 5 6 6 5 5 4 3 3 2 2 1
19 19 17 14 13 12 11 9 9 9 9 8 7 8 7 6 6 6 5 4 6 10 9 8 6 6 6 6 4 5 4 2 2 3 2 2 1 1 2 2 3 3 3
20 21 21 18 17 15 13 12 11 11 12 11 10 10 10 8 6 5 4 2 4 5 7 9 9 9 8 8 8 8 8 8 7 6 6 6 6 6 6 5 5 6 6
19 18 21 22 21 18 16 15 14 13 13 13 13 13 11 11 10 9 8 5 4 6 7 7 5 7 9 10 9 12 12 13 11 10 9 9 10 12 13 12 12 12 12
19 19 21 23 22 21 19 17 17 16 16 15 14 14 13 12 11 11 10 9 8 4 5 10 7 8 8 7 9 9 10 10 11 11 11 12 12 13 15 16 16 16 16
26 21 23 23 23 22 21 21 19 19 18 18 18 16 16 15 14 13 11 10 10 9 5 6 9 6 9 7 8 8 7 11 10 10 12 13 15 16 18 18 18 18 18
28 27 26 24 25 24 24 23 23 21 21 20 20 19 19 15 14 13 13 13 12 11 10 7 7 7 8 8 7 8 10 9 10 10 11 12 16 18 18 18 18 16 17
34 31 29 27 26 27 27 26 26 25 25 23 23 22 19 17 18 16 16 14 14 12 12 10 8 11 10 10 11 11 10 12 10 8 13 15 14 14 15 14 15 16 17
36 35 33 32 31 30 30 29 28 28 27 26 24 24 21 21 21 20 19 15 15 13 15 13 11 11 10 10 10 10 11 11 12 13 15 12 10 12 14 16 17 15 16
36 36 36 35 34 33 32 31 30 30 29 29 27 25 23 24 24 21 19 18 14 15 15 14 13 11 11 10 10 12 12 12 12 11 12 14 12 14 17 17 16 16 17
39 38 36 36 36 35 35 35 34 33 32 31 29 27 26 25 26 23 20 19 19 18 16 15 15 13 12 12 13 14 13 9 10 12 11 12 12 12 13 14 16 17 12
38 37 38 38 38 39 40 42 39 36 34 32 31 29 26 27 29 29 28 23 22 20 18 18 17 14 11 11 13 14 12 11 10 4 7 12 13 16 16 17 13 9 14
36 38 38 39 40 42 45 47 49 41 38 35 33 30 27 26 27 25 31 28 29 26 23 18 19 16 13 11 12 8 12 10 11 10 9 15 15 17 18 15 12 14 14
39 39 39 40 40 43 47 49 50 47 34 33 31 30 29 26 25 26 23 26 27 27 28 25 22 21 17 13 10 11 11 10 12 13 9 10 13 14 14 13 14 14 14
35 38 37 38 42 43 46 50 51 41 37 32 31 30 29 29 28 29 26 25 25 26 23 25 24 22 18 16 13 12 11 10 11 11 6 8 10 11 13 15 12 12 15
36 35 37 40 42 42 45 50 52 41 36 37 35 32 34 32 30 31 30 25 24 22 23 17 21 25 22 18 17 16 11 12 10 11 1 6 10 9 9 11 7 14 14

GFSMA_925_spd_027.txt.gz
Wind_Speed
3 2 1 1 2 2 4 4 3 3 1 1 4 5 4 3 6 12 11 9 7 6 6 8 9 9 8 7 7 6 7 7 5 4 4 4 3 3 2 2 2 2 3
4 4 4 5 4 4 3 4 2 3 3 7 5 4 7 6 2 3 12 10 8 6 6 8 11 10 10 9 8 8 6 6 6 6 5 5 5 3 4 3 3 3 4
4 3 1 2 6 1 1 2 4 3 1 5 3 2 2 5 6 2 9 11 9 8 8 10 10 12 11 10 10 9 10 9 9 8 7 7 6 7 6 6 5 5 5
5 4 1 1 3 1 2 1 3 4 1 3 4 3 4 6 5 4 3 2 11 8 9 8 8 9 7 8 9 9 8 8 8 9 8 8 8 8 7 7 7 7 7
8 6 3 0 3 2 1 0 2 5 4 3 2 4 3 5 3 8 4 3 4 10 9 9 7 7 7 5 4 5 7 8 9 9 9 9 9 10 9 9 8 7 9
11 9 8 5 4 4 2 1 3 4 3 1 7 7 6 5 2 8 7 7 4 7 6 6 7 4 5 4 3 3 4 7 8 8 8 8 10 10 10 10 9 10 10
12 11 6 5 5 3 3 4 5 3 4 3 9 9 6 6 3 3 5 7 3 3 4 4 6 6 5 4 2 1 2 1 2 4 5 5 7 8 8 8 9 10 10
13 12 9 8 7 5 6 6 5 5 4 6 7 7 4 7 7 6 4 5 3 5 5 1 6 4 10 8 4 2 2 2 3 2 0 0 1 1 3 4 5 5 5
15 14 11 10 9 8 8 8 6 6 7 6 7 6 2 3 11 7 4 4 2 4 3 4 5 3 3 4 4 5 5 4 3 3 2 2 2 2 1 1 2 4 5
16 15 14 12 13 11 12 8 8 8 5 8 7 7 4 7 3 2 8 6 3 3 3 3 5 5 3 7 5 5 5 5 5 5 5 5 4 4 3 3 3 2 2
18 17 16 14 14 12 10 10 8 8 7 8 8 8 5 5 4 2 5 8 8 7 5 3 3 6 4 1 8 6 7 6 6 6 5 4 4 4 4 3 2 2 2
19 20 19 17 16 15 11 10 11 10 10 8 7 7 9 9 10 8 5 12 8 11 8 7 6 6 6 5 4 8 5 5 4 3 1 1 3 3 3 3 4 4 5
21 24 25 19 19 17 14 14 14 11 11 11 11 9 9 8 5 4 4 1 2 6 4 8 9 7 7 7 7 9 7 6 5 4 3 4 6 7 7 7 6 6 6
21 18 28 24 22 20 18 16 16 14 14 13 13 13 10 9 7 6 5 4 4 7 7 8 6 7 8 8 8 10 8 9 8 8 8 8 9 10 12 12 12 12 12
20 20 21 22 23 23 21 20 19 18 15 16 14 14 13 10 9 8 7 6 7 5 5 11 6 9 6 8 10 7 10 10 9 10 11 11 12 13 14 15 15 15 15
25 17 24 23 24 25 24 23 21 19 18 17 16 17 15 13 11 10 9 8 8 8 6 5 6 6 8 7 10 9 9 9 11 12 11 11 13 15 16 18 17 17 17
27 31 23 26 26 27 26 26 25 21 23 21 19 18 17 17 13 13 11 12 11 9 8 8 4 8 9 7 4 7 11 11 14 16 13 12 13 16 18 18 16 16 16
32 28 29 28 28 28 28 28 27 26 23 24 22 21 20 18 19 15 15 14 13 11 11 7 9 7 11 13 13 12 13 16 15 12 13 12 16 18 16 14 13 13 15
36 34 31 31 31 31 30 31 30 29 26 26 25 25 24 23 21 21 21 16 16 14 12 13 11 12 12 13 15 12 15 16 15 14 17 17 16 13 12 15 15 16 17
37 36 35 35 35 35 35 36 36 34 32 31 32 29 28 27 26 24 20 23 16 16 16 15 14 14 14 14 12 13 15 20 18 12 12 11 15 14 16 13 14 14 14
39 38 37 37 37 37 37 37 36 34 34 34 33 31 28 28 29 27 25 23 22 20 19 18 16 15 15 14 16 15 18 15 14 16 11 12 14 15 17 20 18 14 13
40 39 40 41 41 41 41 43 40 37 35 33 31 29 28 29 31 32 32 26 27 24 22 20 19 17 14 9 11 14 12 11 8 7 10 11 15 14 15 2 7 10 8
36 40 41 40 41 43 45 47 47 41 36 35 33 32 30 30 35 37 38 36 29 30 27 24 21 18 9 11 13 7 12 12 11 7 6 10 13 15 10 6 5 6 8
39 38 39 40 41 44 48 50 50 49 40 35 36 37 36 35 36 35 31 35 35 30 34 30 22 21 20 15 7 11 12 11 12 16 16 10 11 12 10 9 13 12 10
37 39 38 39 42 44 45 50 50 44 42 40 38 38 38 37 36 41 35 31 31 32 31 36 33 25 24 18 14 12 13 13 13 15 11 14 8 9 9 12 13 10 9
35 33 37 40 42 43 42 45 51 42 40 41 41 40 44 41 40 41 40 35 31 33 32 30 32 33 29 23 21 23 15 17 16 13 9 11 8 9 11 13 10 11 12

GFSMA_925_spd_030.txt.gz
Wind_Speed
2 6 7 6 15 8 10 7 1 3 4 7 7 8 7 8 12 12 11 8 8 8 8 10 8 8 8 6 5 5 5 5 5 4 4 2 2 1 1 1 1 1 2
4 5 5 5 6 7 5 3 2 4 8 9 2 5 8 6 9 9 9 10 7 6 6 7 9 7 7 6 6 4 4 5 4 3 2 2 3 2 2 2 2 2 3
5 4 3 10 6 5 8 5 5 6 1 8 6 1 5 6 6 7 10 10 9 6 6 7 8 7 7 6 5 6 6 5 5 4 4 4 5 5 5 5 5 4 4
3 3 1 7 6 1 3 3 4 3 8 8 4 3 11 7 3 7 9 13 9 6 6 8 8 9 6 6 5 6 6 6 6 6 6 5 5 6 6 5 6 6 6
7 5 2 2 4 1 3 4 3 7 3 3 10 4 9 5 8 5 7 15 14 7 9 10 8 8 6 6 5 4 5 7 7 7 6 7 6 7 7 8 8 7 7
10 8 5 2 1 2 3 3 2 3 5 2 13 11 12 3 10 5 6 17 9 13 9 10 10 7 7 6 5 4 3 4 6 5 5 6 6 8 8 8 8 9 9
13 11 5 7 6 3 3 5 3 1 4 2 10 10 5 7 0 3 12 10 6 11 12 8 11 6 6 6 4 4 3 2 2 3 4 4 4 5 6 7 7 7 7
14 14 13 7 9 9 5 6 4 5 7 4 2 5 3 6 6 10 10 5 6 10 8 8 8 6 8 7 4 3 4 3 4 3 3 1 0 1 2 3 4 4 4
18 15 13 11 6 7 8 7 6 5 1 5 4 2 2 2 5 6 6 10 6 8 5 9 10 7 9 5 5 4 4 3 3 4 3 3 3 2 1 1 2 3 4
20 18 18 12 11 11 13 11 10 7 6 10 4 2 2 4 2 1 8 11 6 4 9 12 12 10 11 7 7 3 5 5 5 6 6 6 6 5 5 4 3 3 4
23 21 18 17 15 14 13 11 12 11 7 7 9 7 3 4 4 2 2 6 6 10 8 4 14 11 10 13 9 8 7 7 7 6 6 6 6 5 4 3 3 4 5
25 22 18 19 18 15 12 14 13 10 11 6 6 7 9 5 8 7 3 8 14 12 12 10 10 9 12 11 11 10 7 5 5 4 2 2 1 0 1 2 3 4 5
24 27 25 21 21 19 16 16 15 14 13 10 10 5 7 9 5 5 5 7 4 13 8 10 13 12 9 14 13 12 9 7 6 5 4 4 5 5 5 6 6 7 7
26 25 28 28 25 22 21 18 17 16 15 14 11 14 9 8 7 5 5 5 1 6 10 9 13 14 12 9 7 12 9 7 7 8 8 9 8 8 8 9 10 11 11
20 25 29 33 30 25 25 23 20 19 17 18 17 16 16 12 12 10 10 8 4 1 3 11 7 13 11 14 12 10 10 10 10 10 10 12 12 10 11 11 11 12 13
28 17 29 32 29 27 25 25 22 22 23 20 20 20 18 19 12 13 12 11 9 7 2 13 15 16 11 10 14 13 12 12 13 12 13 12 11 11 12 13 14 14 12
23 30 22 30 30 29 29 28 28 25 26 26 23 22 26 21 19 15 17 13 12 11 8 10 11 17 16 12 11 12 12 11 12 15 17 14 11 12 13 15 15 13 12
37 29 31 29 29 31 30 32 30 30 28 30 32 26 26 26 25 20 15 19 16 14 14 12 4 14 18 17 16 12 12 13 17 16 20 20 14 12 13 13 13 12 11
33 38 31 32 32 31 32 32 32 31 31 27 29 29 28 26 25 28 22 17 21 17 12 15 11 11 17 18 17 17 16 18 17 17 13 15 15 15 14 16 15 12 13
40 39 38 35 34 36 35 35 34 34 34 33 29 29 30 31 29 28 29 29 21 24 22 17 18 18 16 20 23 23 21 19 21 19 17 16 18 18 17 16 16 13 13
42 41 39 39 38 37 37 37 36 36 35 34 33 31 33 34 36 37 36 33 33 23 22 24 20 19 20 15 25 25 19 15 17 17 20 19 18 14 18 21 22 19 15
40 39 40 39 39 40 41 43 41 38 37 36 34 34 33 36 39 41 38 35 36 34 28 24 23 22 25 24 20 24 20 18 6 10 21 18 13 15 18 20 17 11 13
38 40 39 39 42 43 45 47 48 42 38 38 37 35 36 38 42 43 43 40 36 36 38 38 30 28 24 27 19 18 16 11 8 7 13 11 13 14 12 7 8 9 10
39 38 38 40 40 43 46 48 49 50 41 40 40 41 41 39 39 43 44 47 45 42 41 38 39 35 27 13 16 18 15 12 12 13 12 11 17 17 10 9 8 7 5
36 38 38 37 41 42 42 46 47 47 45 44 43 43 43 42 42 42 43 44 43 41 45 44 40 32 29 28 20 20 18 18 12 17 14 20 20 18 8 8 9 10 6
34 33 35 37 39 40 39 41 45 42 40 44 42 44 47 46 44 45 48 40 35 39 36 35 41 38 30 26 21 23 21 16 13 7 16 17 19 14 5 10 13 9 9

GFSMA_925_spd_033.txt.gz
Wind_Speed
6 9 10 8 11 8 5 2 5 3 3 5 15 17 21 22 16 9 12 10 9 9 10 10 9 9 8 7 8 8 8 7 7 5 3 3 3 3 1 1 1 1 3
7 7 11 7 5 6 7 4 4 4 7 6 11 11 17 14 13 11 13 10 8 7 9 10 10 9 9 7 5 6 7 7 6 4 3 3 2 1 1 1 1 1 1
5 7 7 10 7 3 3 5 3 3 7 6 4 5 8 14 10 15 11 10 8 7 8 9 10 8 9 8 7 6 4 4 5 4 3 3 4 4 3 3 3 3 3
9 8 9 10 9 4 6 5 2 2 3 7 6 9 8 11 12 15 12 12 10 7 8 9 10 9 9 8 8 6 6 6 5 5 5 4 4 4 4 4 4 4 5
14 10 8 7 7 6 7 5 3 3 4 10 6 12 10 7 11 15 14 11 10 8 8 9 9 10 8 7 6 6 6 6 6 6 7 7 6 6 6 6 6 6 6
15 12 8 9 7 9 7 6 4 4 9 6 11 16 10 4 9 14 16 15 11 9 9 9 9 8 6 5 4 4 4 5 6 7 7 8 7 6 6 6 6 7 7
15 14 10 9 6 7 7 5 7 4 8 9 9 9 7 7 3 6 17 13 15 10 10 8 8 7 7 5 4 4 4 5 5 6 7 5 5 6 5 4 4 4 3
17 16 12 8 9 8 8 9 7 3 5 6 4 3 2 1 8 16 17 13 14 14 11 8 8 8 7 5 4 5 4 3 3 3 3 2 2 1 3 2 1 2 3
18 15 15 13 9 14 10 10 9 8 6 7 4 4 2 3 3 7 8 11 18 15 13 12 10 8 6 3 4 5 3 3 4 4 3 3 3 3 2 2 3 4 5
19 17 17 14 14 14 12 10 10 9 7 8 7 6 4 4 3 1 8 9 10 9 12 12 12 12 10 7 4 4 5 5 6 6 5 5 4 4 5 5 5 5 5
23 20 21 17 17 15 13 11 13 13 9 5 8 12 7 6 4 4 2 7 10 10 14 16 13 14 14 12 7 7 7 6 7 6 5 4 5 4 5 5 5 4 4
28 25 22 22 19 18 17 15 14 13 13 9 10 8 12 7 10 4 2 6 13 12 16 15 17 17 17 15 12 10 8 6 5 4 3 2 1 1 2 1 1 2 3
30 28 26 23 23 20 19 17 17 17 15 13 10 10 12 11 9 11 6 6 5 11 13 17 16 15 17 17 16 13 9 7 5 4 3 3 3 3 5 5 6 6 7
28 27 28 26 26 23 21 20 20 20 18 17 15 15 14 11 8 10 4 4 1 3 9 9 22 18 17 19 17 16 12 10 8 6 6 7 7 7 7 9 9 10 11
31 28 29 32 30 28 25 24 24 23 20 18 19 18 19 16 11 8 9 7 4 2 3 12 8 21 20 17 15 16 14 11 10 9 8 9 11 11 10 10 10 11 12
27 27 32 34 36 33 29 27 25 24 23 22 21 18 20 21 17 12 14 12 10 7 2 8 16 17 24 21 18 17 14 11 11 11 12 11 12 12 11 11 12 14 13
26 33 25 35 39 37 33 30 29 28 26 25 23 23 21 21 22 18 16 18 17 14 9 9 15 18 20 21 21 18 16 17 16 15 16 14 14 13 12 12 12 13 12
37 28 31 26 33 37 35 35 33 31 30 30 29 27 27 23 23 25 18 24 23 20 19 15 8 23 24 23 20 22 22 20 18 17 16 18 19 18 14 13 13 11 11
42 39 31 29 34 38 37 37 37 35 35 31 34 34 32 30 31 30 31 24 27 25 22 20 15 22 27 25 22 21 20 20 21 20 19 18 17 20 16 15 15 12 11
39 39 41 36 34 38 41 41 39 38 39 39 35 35 39 38 38 37 36 35 27 30 29 25 24 22 25 28 27 27 25 24 24 22 22 18 16 19 20 18 19 18 14
37 39 38 40 39 38 41 43 41 41 41 40 40 41 38 42 44 43 40 39 39 31 34 30 27 27 27 20 30 33 32 28 27 25 24 23 21 19 20 18 18 21 18
40 38 40 41 40 40 40 43 42 38 40 39 39 43 40 41 44 45 46 42 40 41 34 29 27 23 29 32 28 34 31 28 12 24 26 26 23 22 18 15 15 14 13
35 39 39 38 41 42 42 42 43 40 38 39 41 38 39 39 42 45 48 47 45 42 44 40 31 34 30 40 37 30 32 30 26 22 22 20 20 19 16 14 12 11 11
38 38 38 39 37 42 42 43 43 46 40 38 38 40 39 39 39 43 45 47 49 49 46 45 41 39 40 37 36 37 34 34 25 20 20 13 20 20 16 14 12 11 12
35 37 36 36 39 38 37 39 40 43 43 44 39 37 39 42 40 41 42 39 41 47 49 48 46 45 42 33 27 33 30 29 10 16 24 19 20 22 20 19 17 14 13
36 33 35 36 37 35 34 35 37 42 39 37 37 41 42 44 41 42 45 39 39 42 42 41 49 48 46 44 38 32 31 30 22 12 23 23 22 21 8 19 19 18 16

GFSMA_925_spd_036.txt.gz
Wind_Speed
11 9 9 7 4 5 5 3 1 1 3 10 12 14 15 13 11 9 11 11 10 10 10 9 10 10 10 10 9 8 7 6 5 5 4 4 3 2 0 2 2 2 3
10 11 8 7 7 4 7 4 2 0 5 11 15 15 14 16 12 10 11 10 10 11 10 11 10 9 7 7 7 8 7 6 5 4 3 3 2 2 2 1 2 3 3
10 8 10 10 7 7 6 6 4 2 3 6 8 15 14 14 11 12 12 9 9 9 11 11 9 9 10 8 6 5 5 5 5 4 4 4 4 4 4 4 3 3 4
11 10 9 9 9 6 5 5 3 4 4 3 2 14 14 12 12 11 10 8 7 7 8 9 9 8 8 7 7 6 6 6 6 6 6 5 4 6 5 5 6 6 6
12 10 7 8 9 4 6 3 3 2 7 10 6 12 12 14 13 11 11 7 8 7 6 6 6 5 4 5 7 7 6 7 8 7 8 8 7 7 7 7 7 7 7
15 13 9 8 8 8 7 5 2 6 6 8 8 12 7 11 12 13 11 9 8 7 7 7 6 6 5 5 4 5 6 8 7 8 8 8 8 8 8 8 7 7 8
17 15 11 11 9 9 7 4 6 6 9 17 16 9 7 11 11 13 13 11 10 8 6 7 7 6 5 3 4 4 4 5 5 6 6 6 7 6 6 5 5 5 4
16 19 16 12 11 11 9 8 7 5 7 6 6 5 3 5 9 13 17 16 14 10 7 8 6 6 5 3 2 4 4 4 3 3 4 4 2 1 2 2 2 1 2
20 18 17 13 12 12 10 9 10 6 6 8 6 4 2 1 1 5 17 15 17 14 11 9 8 7 6 2 2 3 3 3 2 2 1 1 2 2 2 2 1 2 3
24 18 16 17 14 13 13 11 12 11 7 10 8 6 4 9 3 1 7 12 19 17 16 14 11 9 8 6 4 2 3 3 4 4 4 5 4 4 4 4 4 4 4
26 22 18 18 18 17 15 13 14 15 11 10 11 12 7 6 5 3 2 5 13 15 16 15 15 12 12 11 7 6 6 5 5 5 6 5 6 5 4 4 3 3 3
30 27 22 20 18 21 19 17 16 16 14 12 13 14 12 8 8 4 2 6 11 11 16 17 18 16 14 14 12 10 8 6 5 5 5 4 4 3 2 1 1 2 3
34 32 26 24 24 22 22 19 18 17 18 15 13 12 15 14 9 10 6 5 8 11 13 19 22 22 18 17 16 15 12 8 6 5 5 5 4 4 3 4 5 6 7
33 32 30 28 26 25 23 21 21 19 19 18 15 14 12 12 11 10 11 7 1 4 11 11 20 25 24 19 18 19 17 13 10 8 8 8 7 7 7 7 8 8 9
31 30 32 31 30 28 26 23 23 22 21 19 20 17 17 15 13 11 12 11 8 3 5 13 11 23 26 23 22 23 21 18 16 13 12 12 11 10 11 11 11 10 11
31 30 31 33 32 31 30 28 27 25 23 23 22 21 23 23 21 17 14 15 15 12 3 16 22 16 26 27 24 24 22 20 19 17 17 16 14 13 13 12 12 11 11
26 30 31 31 34 35 35 33 31 29 28 28 26 25 24 23 26 24 20 19 19 17 13 14 14 20 22 29 27 27 25 24 21 19 18 18 17 16 15 14 12 11 11
39 25 31 29 37 36 37 37 36 33 32 31 31 28 29 27 27 29 28 26 25 24 22 20 18 17 22 27 28 29 28 28 27 22 21 20 20 21 20 18 15 13 11
39 37 29 33 35 34 37 40 39 37 35 36 35 34 34 32 32 30 31 32 27 27 26 25 24 20 21 27 30 31 30 30 27 24 23 23 23 21 26 24 19 17 14
41 38 39 37 31 33 35 36 39 40 38 37 37 37 38 38 38 36 33 34 33 29 29 29 29 24 22 27 30 33 32 32 31 28 26 26 25 26 26 25 25 21 20
41 43 40 43 39 38 36 38 40 42 41 39 39 40 41 41 42 42 39 39 37 36 35 32 31 26 23 27 31 32 31 33 35 33 29 28 28 26 23 23 26 26 24
40 37 42 41 43 43 39 41 41 42 43 42 41 42 42 42 45 44 44 44 42 40 36 30 28 25 31 37 38 33 34 27 18 36 35 35 30 29 27 25 23 24 24
37 39 38 39 40 39 39 39 41 43 39 41 41 40 41 42 43 45 46 47 47 48 46 40 36 35 35 40 40 36 31 28 31 29 32 32 35 35 32 27 24 22 21
34 37 37 39 38 40 39 40 40 41 39 38 39 39 40 39 42 43 42 40 48 54 54 52 46 46 46 44 43 44 43 42 38 40 39 29 36 34 30 28 25 23 22
33 34 35 36 38 35 35 39 39 41 43 40 39 41 42 41 40 38 40 38 40 51 50 55 57 56 54 48 47 38 33 28 26 30 40 34 30 32 31 30 26 25 26
34 33 33 34 35 34 34 33 35 40 37 36 37 40 40 41 38 38 42 40 39 43 34 38 49 57 59 57 51 47 40 35 31 13 33 33 31 30 11 31 30 30 29

GFSMA_925_spd_039.txt.gz
Wind_Speed
9 8 7 6 4 4 2 3 4 5 6 6 7 12 14 9 7 8 10 10 9 10 9 9 9 8 8 7 8 7 6 5 4 3 2 2 0 1 3 4 3 4 5
9 7 7 6 3 3 5 1 1 5 8 6 11 11 12 9 6 7 9 9 8 7 8 8 8 8 7 7 7 6 6 6 5 4 2 2 2 3 4 4 5 5 6
8 6 7 6 5 3 4 2 2 5 7 6 9 9 9 9 7 7 7 7 8 8 7 8 7 7 7 6 5 5 6 5 4 4 3 4 5 5 6 6 6 6 6
11 8 8 8 6 4 4 2 1 2 6 6 8 10 10 10 8 7 6 6 6 5 7 7 7 7 7 8 7 5 4 5 4 5 5 6 6 6 6 7 8 9 9
12 10 8 8 8 5 5 4 2 2 6 3 5 9 12 9 9 8 6 4 3 3 4 5 6 6 6 6 6 6 7 6 7 7 8 7 8 7 7 8 8 9 9
14 11 7 7 7 6 6 5 2 2 5 6 5 9 8 10 10 8 7 5 4 3 3 6 6 6 4 4 5 5 5 6 7 8 8 9 9 7 8 8 8 8 9
16 13 9 8 6 5 5 5 5 4 6 8 13 9 6 7 11 10 8 7 5 4 4 4 4 5 4 3 3 3 4 4 5 6 6 6 6 7 6 6 6 6 6
18 15 13 11 8 6 7 5 7 6 10 9 6 4 2 3 5 9 11 10 8 7 5 5 4 3 3 2 2 3 3 3 3 3 3 3 2 1 1 0 1 3 3
19 18 16 13 12 10 8 7 7 6 8 5 8 4 2 1 1 1 8 11 12 11 8 6 5 3 4 2 2 2 2 3 2 2 3 3 2 2 2 1 2 4 4
22 20 18 15 13 11 10 8 10 8 8 9 5 3 3 5 3 1 6 12 15 15 12 11 8 7 7 5 3 2 1 2 2 3 4 4 4 3 4 4 4 5 4
22 23 20 17 17 14 12 10 10 11 9 11 9 6 4 5 5 3 2 5 13 17 16 17 13 10 10 9 7 5 4 4 4 5 5 5 6 5 5 5 3 3 2
23 25 23 20 18 16 14 13 12 13 11 9 10 9 10 5 8 4 2 6 10 12 17 18 19 16 14 13 12 9 8 7 7 7 6 6 6 6 5 3 2 2 2
27 28 27 25 21 18 16 16 15 14 14 13 12 14 15 14 9 11 5 3 5 11 7 18 21 20 19 17 16 14 13 11 10 9 9 8 8 7 7 6 6 5 6
30 28 29 27 24 21 19 18 18 17 17 17 17 16 16 17 14 11 9 6 1 3 9 11 14 22 22 22 20 19 18 16 14 13 12 11 11 10 10 9 10 9 9
28 29 29 30 28 25 22 22 21 21 20 20 20 19 18 16 15 14 12 12 8 3 3 11 15 16 21 23 23 23 22 21 19 17 16 15 15 15 14 14 13 12 11
29 27 29 29 31 29 26 25 25 24 23 23 22 22 23 22 20 19 16 14 15 13 3 5 14 20 16 21 25 25 25 23 24 23 20 19 18 17 16 16 15 14 14
32 28 28 28 29 32 31 29 29 27 26 25 25 25 25 24 26 24 22 20 18 18 13 20 14 14 20 23 26 28 28 28 29 28 24 21 22 21 20 18 16 17 14
33 31 29 29 30 30 32 33 32 32 30 29 29 29 29 27 27 25 25 26 24 21 21 23 24 21 20 22 24 29 30 30 30 30 29 27 25 24 23 22 21 20 17
35 35 33 29 32 33 34 33 34 34 35 33 33 33 33 32 30 30 29 28 29 29 26 27 31 29 25 22 25 29 33 34 34 31 31 31 29 27 27 25 25 25 21
40 39 38 39 35 33 35 33 33 35 37 38 37 36 36 37 37 36 35 34 33 32 33 32 32 33 30 28 28 29 33 35 37 36 36 34 32 32 31 29 27 28 27
41 43 42 40 41 38 35 35 37 36 36 38 40 40 39 39 39 39 39 39 38 37 35 35 30 29 30 28 29 32 34 36 39 39 40 39 38 36 34 32 33 30 30
41 41 43 44 44 41 43 41 39 37 38 39 40 41 42 41 40 40 41 42 41 39 34 30 30 27 30 29 33 31 34 25 18 33 38 48 43 42 39 37 33 31 28
38 39 40 41 41 43 42 42 41 40 40 41 42 42 42 44 43 42 42 43 45 48 48 39 33 34 35 37 33 31 33 32 33 31 30 34 32 42 43 40 36 33 31
36 37 38 38 37 38 42 43 42 41 42 42 44 45 44 42 39 40 40 41 44 46 47 50 50 47 43 42 37 40 40 39 39 36 35 28 28 32 37 42 41 37 34
33 36 37 38 38 36 38 39 38 40 42 43 40 41 41 40 40 38 38 37 42 45 44 44 45 47 51 53 47 34 31 27 30 34 33 33 31 31 36 42 43 39 38
33 30 30 33 37 37 37 37 36 40 36 35 36 38 36 37 36 35 38 40 38 36 34 37 42 45 45 48 52 49 41 31 30 26 33 31 30 31 14 34 41 40 37

GFSMA_925_spd_042.txt.gz
Wind_Speed
6 6 6 4 3 3 3 6 4 4 4 6 8 11 8 4 4 6 7 6 6 6 6 6 7 5 5 6 5 4 4 3 2 2 2 1 2 3 5 6 6 7 8
6 6 6 4 2 2 2 3 4 5 6 8 9 10 6 4 3 4 5 5 5 5 6 5 6 5 5 4 4 4 3 3 2 1 1 2 4 4 5 6 7 7 7
6 6 6 5 2 3 5 6 7 6 5 4 5 7 6 5 3 3 3 4 4 5 4 6 4 3 5 4 3 3 4 4 4 3 4 4 5 6 6 7 7 8 8
7 6 6 6 5 4 4 3 4 6 6 4 6 5 5 4 2 3 3 3 3 4 5 5 6 7 6 5 5 5 3 4 4 4 4 6 6 6 5 6 7 8 8
10 7 4 6 6 4 2 1 3 4 7 6 6 5 4 4 4 4 3 3 2 1 3 4 4 4 4 5 6 6 6 7 7 7 7 7 6 6 5 6 7 8 8
12 8 6 7 7 4 4 1 0 3 7 6 6 5 6 5 5 4 3 2 1 1 1 3 3 4 4 4 5 5 6 6 7 8 8 7 6 7 6 6 6 5 6
13 11 8 6 6 6 6 4 2 3 7 9 10 6 3 4 7 6 5 4 3 2 1 1 2 3 4 4 4 5 5 6 6 6 6 6 5 4 4 2 3 3 5
14 12 10 8 5 5 6 4 4 3 6 8 5 4 2 1 2 5 7 7 5 5 3 2 2 2 3 3 3 5 4 5 5 4 3 2 2 2 1 1 1 2 3
15 14 13 10 7 4 6 5 5 4 6 5 7 3 2 2 1 2 5 8 8 8 7 5 4 3 4 3 3 3 3 3 3 3 2 1 1 1 0 2 2 4 5
16 15 14 12 9 7 8 6 6 5 6 6 7 4 3 3 2 1 3 7 8 11 11 9 8 6 6 6 5 4 3 2 1 1 1 1 1 1 2 3 3 4 3
15 17 16 13 11 9 9 7 6 8 7 9 8 5 4 3 2 2 1 3 9 13 13 13 12 11 9 8 8 5 5 4 2 1 1 0 1 1 1 1 1 1 1
18 18 18 16 13 13 11 10 8 8 11 10 11 9 6 3 5 3 2 4 5 5 14 15 15 14 12 11 11 9 7 6 5 4 4 4 4 4 4 4 3 3 3
23 21 20 20 18 15 13 11 11 11 12 14 12 11 11 10 6 7 4 2 2 4 7 11 16 16 16 15 14 13 11 10 9 7 7 8 8 8 7 6 6 7 7
25 20 20 22 21 19 15 14 14 14 15 16 17 14 12 12 12 10 7 4 1 2 4 10 11 12 17 18 17 16 16 15 14 13 12 13 13 12 11 11 11 10 10
26 22 22 23 23 22 20 18 17 17 18 18 18 18 16 14 12 12 12 11 5 1 2 5 6 8 13 16 19 20 20 18 19 19 18 18 18 17 16 15 15 14 12
25 24 22 24 24 24 23 22 21 20 20 20 20 19 19 18 16 14 13 12 12 10 3 4 12 14 14 15 16 20 23 22 22 23 24 23 23 21 20 20 18 17 16
26 28 26 23 24 25 25 26 25 23 23 23 22 23 22 20 20 20 19 19 18 15 12 18 19 20 18 17 19 21 23 26 27 26 27 27 27 26 25 23 21 20 19
28 30 27 25 26 25 25 26 28 27 27 27 26 26 26 24 24 23 22 23 24 23 21 23 27 26 26 23 22 22 24 26 29 31 30 31 32 30 28 27 26 24 23
32 31 32 32 30 27 27 26 26 28 30 30 29 29 29 28 29 28 27 27 27 26 26 28 26 24 28 27 27 27 27 29 31 33 34 33 34 34 33 31 30 28 28
35 35 34 34 33 30 28 28 28 29 30 31 32 33 33 33 32 31 30 31 32 31 30 30 30 29 30 33 30 33 34 34 34 34 37 39 38 37 36 35 34 32 32
38 37 37 37 36 35 35 32 31 33 32 32 33 34 35 36 36 34 33 34 34 33 27 25 24 22 26 23 26 28 30 36 39 38 39 42 42 43 42 38 36 35 34
39 38 40 40 41 41 40 40 39 36 35 36 38 38 37 36 36 37 37 37 37 33 28 26 28 26 29 28 33 32 29 24 20 27 34 42 42 46 47 44 42 39 35
37 38 40 39 40 43 44 42 41 42 40 40 41 40 39 39 39 39 39 39 40 40 40 36 34 33 34 31 33 30 29 31 33 31 27 29 30 39 41 45 47 45 40
36 36 38 39 39 41 42 43 43 42 42 43 44 43 41 40 39 39 39 40 42 41 39 38 43 48 45 41 37 39 39 37 38 36 29 28 32 35 37 43 42 45 46
32 36 37 37 39 39 38 39 38 40 42 44 39 40 40 38 37 37 36 36 40 37 37 39 39 40 41 41 42 34 26 23 26 33 30 30 37 37 35 42 50 48 47
31 28 32 35 38 38 37 36 36 37 32 35 35 37 38 38 37 37 38 36 34 34 36 34 37 38 38 37 37 40 45 32 29 21 31 34 37 24 14 37 40 43 48

GFSMA_925_spd_045.txt.gz
Wind_Speed
6 5 5 4 3 3 4 4 3 5 7 6 8 8 6 5 5 4 4 4 3 2 4 4 4 4 3 4 4 3 3 2 3 3 3 3 4 4 5 6 7 8 8
6 6 4 3 2 2 2 3 4 7 9 9 9 8 6 5 5 4 3 2 3 3 3 2 2 3 3 2 2 2 2 1 0 1 2 3 4 5 6 7 7 7 8
4 2 2 2 2 5 6 6 5 6 8 8 8 7 6 5 4 4 3 2 0 1 2 3 2 1 2 1 2 2 3 3 3 3 4 5 5 5 5 5 6 7 8
3 3 3 3 4 6 6 6 4 4 6 6 7 7 6 5 3 3 2 2 1 1 1 3 4 4 3 4 5 4 3 3 4 5 6 6 5 6 6 6 7 7 7
4 4 4 4 5 4 4 5 4 4 4 6 5 6 5 3 3 2 1 1 1 2 1 2 2 3 2 4 5 6 6 7 8 8 7 7 7 6 6 6 6 6 6
7 6 4 5 6 4 5 4 4 6 5 6 6 5 3 2 2 2 1 0 2 2 1 0 0 2 3 3 4 5 7 7 8 8 8 7 6 5 6 6 5 4 4
8 7 6 5 6 5 4 5 5 6 6 8 7 5 2 1 3 3 2 1 0 1 1 1 1 1 2 3 4 4 5 6 6 7 6 6 5 3 4 3 3 2 3
11 9 8 6 7 6 8 5 4 5 4 6 3 3 3 3 2 3 4 4 3 2 2 1 1 1 1 1 3 4 4 5 5 5 4 3 3 2 1 1 1 2 4
14 11 9 8 6 5 7 5 4 4 5 4 6 1 2 1 2 3 3 5 5 4 4 3 2 3 3 2 2 3 3 3 3 3 2 1 1 0 1 2 2 3 4
16 14 12 10 7 8 6 6 5 5 6 6 4 2 1 1 1 1 3 4 5 6 6 5 4 5 5 4 3 3 3 2 1 1 1 1 2 2 3 3 3 3 3
16 15 14 12 10 7 8 8 6 8 6 6 4 3 2 2 1 2 1 1 4 8 8 8 8 8 7 7 6 5 4 3 2 3 4 4 3 4 4 4 3 2 1
16 16 14 14 11 8 9 7 8 7 8 6 6 5 4 2 2 3 3 3 3 4 6 9 10 10 9 9 9 9 8 7 5 5 6 6 5 5 5 5 4 3 3
17 17 17 16 14 13 10 10 10 8 8 8 8 6 6 5 4 3 4 4 4 3 3 8 11 12 11 12 12 12 12 12 11 9 9 9 9 9 9 8 8 8 7
20 19 21 19 17 15 13 12 11 10 9 8 9 9 6 6 6 6 6 5 4 5 5 8 6 9 11 13 14 15 16 16 16 15 14 13 13 13 13 13 13 12 12
17 19 22 19 18 18 17 15 13 12 11 10 9 9 10 8 7 7 7 7 7 5 6 3 2 3 6 10 14 17 19 20 19 19 19 19 18 18 19 18 18 17 16
22 19 23 21 19 18 18 18 14 13 12 12 11 10 11 10 10 9 8 7 8 8 6 7 9 11 13 12 13 15 19 20 23 23 24 24 24 24 22 22 22 21 20
26 25 24 23 20 19 19 19 19 16 14 14 13 13 13 13 13 12 11 11 12 11 15 18 15 13 18 18 18 18 19 21 21 25 27 28 29 29 28 27 26 25 24
30 29 26 25 23 20 19 18 18 17 17 17 16 15 15 14 15 15 14 15 15 15 16 20 19 18 19 17 22 23 23 20 22 23 26 28 32 33 33 33 32 30 29
34 29 26 27 24 24 21 20 21 19 18 19 18 18 18 16 17 16 17 17 16 16 16 18 23 20 20 17 18 22 23 25 27 29 30 31 32 35 37 37 36 35 34
35 33 31 28 26 25 23 21 20 20 20 19 20 20 20 19 20 19 19 18 17 18 19 20 24 24 23 21 19 23 23 23 23 22 26 29 33 36 37 39 40 39 39
35 36 32 29 27 25 25 25 24 22 22 21 21 21 21 23 25 26 21 20 17 18 18 20 22 22 23 21 22 23 25 26 26 22 26 25 26 27 29 37 42 45 45
33 30 29 28 27 28 30 33 31 24 23 22 23 23 24 28 31 32 32 30 28 24 24 24 27 27 25 25 25 25 26 27 26 21 24 24 21 29 29 30 36 40 46
29 29 28 28 29 32 37 37 37 33 28 27 26 25 24 24 26 26 25 29 31 32 35 36 33 30 31 27 27 27 28 30 31 26 24 36 26 34 33 35 38 43 42
29 29 28 29 29 32 38 39 38 38 33 32 31 31 30 31 29 27 25 27 27 27 26 28 33 39 35 31 29 30 30 31 37 32 26 30 31 34 33 35 39 42 46
27 28 27 27 29 32 37 37 35 30 32 34 33 32 31 32 31 31 30 30 31 29 27 31 35 36 35 34 34 34 29 24 23 31 24 25 33 34 34 36 35 38 43
28 26 27 28 29 30 32 36 33 27 28 29 28 29 32 34 32 32 32 28 30 28 26 25 24 25 28 30 29 28 30 25 24 19 16 16 23 23 16 29 28 32 33

GFSMA_925_spd_048.txt.gz
Wind_Speed
6 6 6 4 4 3 3 4 4 5 5 7 8 7 7 7 6 6 10 5 5 4 5 4 6 4 4 4 4 3 3 2 2 3 3 4 4 5 6 6 6 7 8
6 6 5 3 4 3 3 4 5 7 8 7 8 7 7 7 7 5 7 5 3 4 4 3 2 3 2 1 1 2 1 1 1 2 2 3 4 5 6 6 7 7 8
6 5 5 4 4 4 5 7 7 7 7 8 7 7 7 6 7 6 6 5 2 3 1 3 1 1 1 0 0 1 2 3 4 4 4 5 5 5 6 6 7 8 8
4 6 5 5 5 7 6 7 6 9 4 9 9 8 6 6 6 5 6 4 4 3 2 1 3 3 2 3 4 4 4 4 5 6 6 6 6 6 6 7 7 8 7
3 3 4 5 6 5 4 7 6 9 5 9 10 6 5 6 4 6 5 4 4 3 2 2 1 3 2 3 4 4 5 6 7 7 7 7 7 6 6 6 6 6 6
5 4 3 4 6 5 5 5 5 5 4 3 9 4 5 5 3 3 5 3 4 2 2 1 1 4 1 3 4 4 4 5 6 6 6 6 6 5 5 5 5 4 4
6 5 4 4 6 6 5 5 6 7 6 6 9 7 5 3 3 1 1 1 4 3 3 1 1 1 3 2 2 4 4 4 4 5 4 4 3 3 3 2 2 3 3
8 6 5 4 3 5 7 6 5 7 7 7 1 4 5 7 4 2 1 1 0 1 1 0 0 1 1 0 2 4 4 4 4 3 2 2 1 0 1 1 0 2 3
10 8 7 5 3 4 7 6 7 7 8 7 4 5 1 1 3 3 4 3 3 4 2 2 1 2 2 2 2 3 4 3 3 2 2 2 2 2 2 2 3 4 3
12 10 8 7 6 5 5 5 5 5 4 8 5 3 3 5 2 5 4 4 5 5 4 4 3 3 3 4 4 4 5 3 3 3 2 2 3 3 4 5 5 4 3
12 11 9 8 6 6 7 6 4 5 5 4 4 5 3 2 1 6 3 6 4 4 4 5 5 5 5 5 5 7 7 4 3 4 4 4 4 4 5 6 6 5 4
13 12 11 10 9 7 7 7 6 6 6 6 5 4 4 2 3 2 2 2 3 1 3 4 6 7 7 7 8 11 11 8 7 6 6 7 7 8 8 9 8 8 7
15 14 14 13 11 11 8 8 8 7 8 8 7 7 7 6 5 5 4 4 3 1 3 5 7 8 8 8 9 12 13 13 12 11 10 11 12 12 13 13 12 12 12
16 13 14 15 14 12 11 9 9 10 8 8 9 8 7 7 6 5 6 6 5 4 3 6 5 6 8 10 11 15 15 18 17 17 17 16 16 17 17 18 17 17 16
15 15 17 17 16 15 14 11 11 10 9 9 9 9 10 9 7 7 6 6 6 5 3 5 4 5 5 7 10 13 15 18 22 21 22 22 22 22 21 22 22 22 21
19 16 17 18 18 17 16 14 12 12 11 11 11 10 10 10 9 9 9 8 9 10 7 7 7 8 10 11 13 15 15 19 24 25 26 27 28 27 27 27 26 26 26
20 19 18 18 19 18 17 17 15 13 13 13 12 12 13 12 12 11 11 11 12 12 14 15 13 13 14 15 15 16 17 18 20 24 25 26 31 33 33 32 32 31 31
23 22 20 19 20 20 19 19 18 17 17 16 15 15 15 14 15 14 14 14 15 14 16 17 18 19 19 18 19 19 19 21 23 24 27 30 29 30 34 37 38 38 37
25 24 22 22 21 21 20 20 19 19 18 18 18 18 18 17 17 16 16 16 16 16 16 18 20 20 20 20 21 21 20 22 23 23 25 29 30 32 36 38 41 43 44
26 26 25 23 23 23 23 22 21 20 20 19 19 19 20 20 19 18 17 17 17 17 18 20 22 21 20 19 20 21 20 20 22 22 23 26 28 32 36 36 39 43 47
28 27 27 26 24 24 25 25 24 23 21 21 21 20 21 22 22 22 19 17 17 18 19 20 21 21 21 19 19 24 27 27 26 24 27 25 26 26 27 31 33 34 39
29 27 29 28 27 27 28 29 27 24 23 22 23 22 22 23 24 27 28 29 27 22 24 24 24 24 21 23 24 27 29 29 27 25 22 28 27 28 27 30 31 33 36
29 29 28 29 29 30 30 31 32 29 24 24 24 23 23 24 23 22 23 24 24 27 30 31 29 28 28 26 25 26 29 28 27 27 28 32 28 29 29 30 30 30 33
31 30 29 30 30 31 32 34 34 31 29 29 27 27 27 27 26 24 22 24 24 24 24 25 25 25 24 22 21 23 25 28 27 23 19 26 26 29 30 30 31 30 32
29 30 30 30 31 31 33 35 35 28 29 31 31 31 31 30 30 29 28 29 29 28 27 29 31 32 29 27 27 26 24 24 25 23 20 21 26 30 34 34 32 31 27
31 30 30 30 31 30 30 34 34 28 28 28 28 29 33 35 32 31 30 28 28 26 22 23 23 21 18 19 19 19 17 19 18 16 13 13 21 20 16 34 30 32 34

GFSMA_925_spd_051.txt.gz
Wind_Speed
6 6 3 3 3 4 3 4 6 5 4 7 9 8 9 8 11 11 10 8 8 8 7 7 6 5 6 4 4 4 3 3 3 4 4 5 5 6 7 8 8 8 9
5 5 3 2 2 6 6 5 7 3 4 6 8 7 6 10 8 11 10 9 7 7 6 5 4 4 4 3 2 2 1 1 2 3 3 4 5 5 6 6 7 8 9
4 2 4 2 1 5 6 6 6 4 5 11 7 7 7 10 9 6 5 9 8 7 6 5 4 4 3 2 1 1 1 2 3 3 4 4 5 5 6 7 8 8 9
5 5 5 4 5 6 8 4 10 3 0 11 9 11 8 10 6 5 5 4 8 7 8 4 4 4 3 3 4 3 3 4 4 5 6 6 6 7 7 7 7 9 9
5 5 6 6 4 5 4 4 10 8 3 12 15 7 7 7 6 9 6 2 4 6 8 6 1 3 3 4 4 4 5 6 6 7 7 7 6 6 6 7 6 6 5
5 3 7 6 5 4 5 1 4 11 3 6 8 8 7 6 3 5 4 7 5 3 10 1 3 6 2 1 3 4 5 5 5 6 6 6 6 5 5 5 4 3 3
6 4 5 5 4 6 2 5 4 2 3 7 8 7 5 4 5 3 1 4 5 5 1 2 6 6 5 0 1 3 5 5 5 5 6 5 4 4 4 3 1 2 1
7 6 5 7 4 6 5 3 3 7 6 4 6 7 2 0 7 2 1 2 1 2 4 4 1 2 3 3 3 6 4 3 3 4 4 3 2 3 2 2 1 1 0
9 6 7 1 4 3 8 6 5 7 1 3 5 5 2 1 3 5 5 4 3 4 1 2 2 3 3 2 5 3 4 4 2 3 3 3 2 2 2 3 3 3 2
11 9 8 6 5 4 6 7 6 6 3 8 4 4 1 5 1 1 6 3 3 4 4 5 5 5 4 4 6 6 6 4 3 3 3 4 4 4 5 5 5 5 5
12 11 10 9 7 7 6 4 4 7 6 5 10 7 4 5 4 2 5 10 6 3 4 3 3 3 5 5 6 8 7 5 5 5 5 6 6 7 7 8 8 8 8
14 13 11 10 9 6 6 8 6 7 7 5 3 3 8 4 9 4 1 3 3 4 2 4 5 5 5 6 6 8 10 11 9 8 8 9 9 10 11 11 12 12 12
18 19 15 12 11 10 8 8 7 7 8 7 6 7 6 4 4 7 6 4 2 0 3 4 5 6 6 6 7 11 12 13 13 13 13 13 13 14 15 16 16 17 17
15 19 17 15 13 12 10 10 9 10 9 9 9 10 7 8 6 5 6 6 5 7 5 3 5 4 5 7 8 10 13 17 18 18 18 18 19 19 19 21 22 22 23
15 15 15 15 16 14 13 13 12 11 9 10 11 11 10 9 7 7 6 6 7 5 3 6 3 5 5 6 9 10 14 17 20 22 23 24 25 25 26 27 27 28 28
19 10 18 17 17 17 16 16 14 14 12 12 11 12 11 11 9 8 9 8 8 9 6 10 6 6 8 10 11 12 15 18 22 25 27 27 29 32 33 34 34 33 33
18 19 15 17 19 19 19 18 18 12 16 14 13 11 12 13 11 10 10 11 11 11 12 13 12 12 10 12 15 16 15 19 21 24 26 27 27 29 33 39 41 41 39
23 20 20 19 20 21 21 21 20 18 17 16 16 16 15 15 16 17 13 12 12 11 13 14 17 19 19 18 21 20 17 17 19 21 26 26 28 31 34 35 38 42 46
26 25 24 22 22 23 22 22 22 21 19 19 19 18 18 17 17 17 15 16 15 16 15 17 18 18 19 19 20 20 20 18 19 22 25 25 24 27 27 29 33 34 36
29 27 26 26 24 24 24 24 23 23 22 21 20 20 20 20 20 19 18 18 17 17 18 19 20 21 20 18 18 19 17 17 22 23 24 27 29 30 29 29 31 30 35
32 30 28 27 27 25 25 26 24 23 23 22 21 22 23 23 22 21 20 19 19 19 19 20 19 19 19 18 18 23 26 22 23 28 28 25 24 24 24 23 28 32 34
33 31 29 28 29 28 27 28 28 25 24 23 22 23 23 22 24 27 27 29 27 20 18 20 23 22 23 23 22 23 26 27 23 21 23 26 25 24 26 27 27 27 29
32 31 30 29 30 31 29 29 31 29 24 25 24 23 23 22 24 24 23 24 25 26 28 30 27 27 27 25 25 24 24 24 24 25 26 25 23 23 24 26 28 28 29
35 32 31 31 31 32 33 33 31 32 29 28 24 24 25 25 22 19 19 21 21 21 22 23 28 27 24 24 22 24 26 26 23 20 21 24 23 24 23 23 28 29 27
33 33 32 32 32 32 33 36 33 28 29 29 28 29 28 26 25 26 28 27 28 28 28 29 31 32 33 33 31 30 25 22 20 16 19 18 17 25 25 22 23 25 26
34 34 33 32 32 32 33 34 35 30 28 28 28 30 32 34 30 29 29 27 27 25 24 23 22 21 19 19 20 22 23 18 17 12 9 12 17 18 18 27 24 23 27

GFSMA_925_spd_054.txt.gz
Wind_Speed
5 4 4 4 6 10 4 8 9 8 17 10 10 10 17 16 16 12 13 10 11 10 9 8 7 7 6 6 5 4 4 3 3 4 4 5 6 6 7 8 8 8 9
5 4 4 4 4 6 8 7 7 2 9 15 9 12 10 11 11 10 12 11 8 8 8 8 6 6 6 4 3 3 1 1 2 2 3 5 6 7 7 7 8 9 10
4 2 4 8 5 4 7 6 4 6 14 10 13 6 12 12 11 9 8 7 9 7 6 6 6 6 5 4 2 1 1 2 3 3 4 5 6 8 7 7 8 9 8
5 4 4 6 7 8 7 6 6 4 10 12 12 11 15 10 8 11 8 8 6 6 6 5 4 4 4 4 3 3 3 4 5 6 7 7 7 7 7 7 7 7 7
4 2 2 5 7 3 7 7 4 4 6 9 12 11 10 10 10 9 6 10 8 4 5 4 4 2 2 2 3 4 4 5 6 7 6 7 7 7 7 7 7 6 5
10 5 3 4 7 9 5 5 7 2 5 6 10 10 7 9 10 3 8 11 6 9 10 2 3 4 2 1 1 3 4 4 5 6 6 7 6 6 6 5 4 4 4
8 5 8 5 5 3 6 4 3 1 4 6 10 7 4 6 8 9 8 10 5 12 10 3 1 3 3 2 2 3 2 4 4 4 5 5 4 4 4 3 3 2 2
8 8 6 8 6 11 7 4 4 4 6 3 5 1 2 2 9 6 5 2 6 5 10 7 4 3 4 7 1 3 3 2 3 4 4 4 4 3 4 4 3 3 3
6 5 6 8 7 4 6 7 3 2 4 7 2 3 3 1 6 7 3 8 4 4 6 1 7 4 4 4 5 3 2 3 2 3 4 4 5 5 5 5 5 5 5
11 9 7 6 7 4 9 5 5 1 2 3 4 4 4 2 1 2 9 9 4 6 5 6 10 8 6 4 9 6 7 5 4 4 4 5 6 7 7 8 8 8 8
14 13 11 8 5 8 7 7 6 8 6 2 6 8 7 7 5 4 2 5 7 7 6 3 3 9 7 4 9 11 9 8 7 6 7 8 9 10 11 11 12 12 11
17 12 12 11 9 5 10 8 7 6 5 1 2 1 2 3 4 6 4 8 11 9 7 6 7 5 9 9 8 11 11 10 11 11 11 11 12 13 14 15 15 16 16
22 21 17 14 12 11 8 10 9 7 8 3 3 1 4 5 9 9 11 6 1 10 5 9 10 8 8 11 9 13 14 13 13 14 15 16 17 18 19 19 20 20 20
21 25 24 18 15 12 11 10 9 10 9 9 5 7 8 6 5 4 7 10 5 7 6 3 7 10 9 8 10 10 13 16 19 20 21 21 22 23 23 24 24 25 25
13 22 25 19 15 15 12 13 12 10 9 11 11 10 11 9 8 6 6 7 8 3 3 5 4 9 6 8 11 11 13 16 19 22 24 25 26 28 29 30 30 30 30
20 20 22 20 19 17 16 15 15 13 12 13 11 14 11 10 12 7 7 8 9 9 3 16 13 8 8 6 9 12 16 19 22 25 24 26 28 29 31 32 33 35 35
17 19 16 18 19 20 18 17 19 15 17 16 15 11 16 12 15 11 9 11 11 10 11 16 15 16 16 16 18 22 23 24 20 22 25 27 29 32 31 33 35 36 37
27 18 21 17 19 19 20 21 21 19 17 19 18 16 12 12 13 16 17 13 10 9 9 14 19 22 20 17 21 22 23 24 22 22 24 22 25 29 30 27 28 30 34
27 27 21 24 21 22 22 23 23 22 20 19 20 19 19 17 17 15 15 15 15 15 18 19 20 17 19 23 27 27 27 25 24 25 27 27 26 30 31 32 31 32 33
33 30 29 26 26 25 25 24 24 24 23 22 20 23 21 21 21 20 20 20 19 19 20 19 21 23 23 23 19 15 17 20 23 21 22 30 26 25 24 23 24 27 27
34 32 31 29 29 28 28 27 26 25 26 24 24 23 24 23 22 22 20 20 21 21 19 20 20 17 17 18 21 21 20 21 28 28 29 20 21 24 22 23 25 25 25
35 33 32 32 30 31 30 29 30 28 26 27 26 26 24 23 27 27 26 25 27 26 25 19 17 17 22 23 21 24 25 22 13 19 18 28 20 21 22 21 21 26 26
36 35 34 32 32 33 34 32 32 32 29 27 26 27 25 24 26 26 28 30 31 30 30 32 29 27 27 28 25 24 21 20 20 25 24 23 22 21 22 20 18 26 23
37 36 34 34 33 34 36 35 32 34 32 29 28 29 29 27 27 20 27 27 28 29 28 27 30 30 28 26 26 27 25 25 24 26 20 18 20 21 14 25 20 19 22
35 35 34 34 35 33 35 38 36 33 35 35 35 34 27 26 29 28 29 30 29 27 22 23 26 30 30 31 32 31 28 20 18 17 22 18 12 21 20 17 11 23 21
37 35 35 35 35 35 35 37 39 37 28 30 30 33 33 35 36 30 27 28 27 27 24 24 24 23 21 21 20 19 21 19 15 11 3 8 13 11 9 6 21 18 21

GFSMA_925_spd_057.txt.gz
Wind_Speed
9 9 12 8 8 7 6 9 6 4 5 11 7 18 16 14 12 13 12 10 10 10 10 9 8 7 6 6 4 4 3 3 4 3 4 5 5 6 7 7 7 6 7
7 7 11 8 8 3 9 9 13 8 8 9 18 17 14 13 13 12 11 10 9 8 8 7 7 7 6 5 4 3 1 1 2 3 3 4 5 6 7 7 8 7 7
6 10 6 7 11 10 7 7 7 17 9 10 17 12 13 12 9 8 11 10 10 8 6 6 6 6 5 4 3 2 1 1 2 3 4 5 5 6 8 7 6 6 5
8 10 8 6 9 9 9 7 8 19 16 14 12 15 14 11 11 9 9 8 9 8 7 6 6 5 4 4 4 3 3 3 4 5 6 6 6 6 6 6 6 6 4
9 9 11 10 10 8 6 5 4 7 11 14 13 14 12 12 11 11 9 9 7 6 6 6 5 5 4 4 4 4 4 5 5 5 6 6 6 6 6 6 5 4 4
8 12 13 10 6 12 6 5 5 5 10 9 10 9 12 10 14 13 11 11 11 8 8 6 6 4 3 3 2 3 4 5 6 6 6 6 6 6 6 5 5 3 2
6 3 9 12 8 11 11 5 7 3 5 6 8 10 10 11 9 13 12 13 13 11 9 7 5 4 3 2 1 1 3 4 6 6 7 6 6 6 6 5 4 3 2
8 8 10 13 7 11 8 7 3 5 5 7 4 2 1 3 10 5 12 13 11 13 10 8 4 3 3 4 3 1 2 3 4 5 6 6 6 6 6 6 5 4 3
10 10 8 9 10 10 9 7 5 3 2 8 6 3 2 2 1 4 9 8 5 14 11 8 5 3 6 3 4 5 3 4 5 5 6 6 7 7 7 7 7 6 6
12 10 11 10 9 9 8 9 6 2 3 5 7 4 3 3 2 2 3 8 9 6 12 12 9 8 5 4 5 9 6 6 6 6 7 7 8 8 8 9 9 9 9
15 12 13 10 11 6 10 7 4 6 2 2 6 7 5 2 5 1 2 8 9 10 11 8 8 12 8 5 5 7 10 11 10 9 9 10 10 11 11 12 12 13 13
19 16 14 12 11 10 9 8 6 4 5 2 2 5 5 1 1 2 2 7 9 11 15 9 9 7 7 9 9 9 11 13 12 12 13 13 13 14 15 15 16 17 17
22 20 18 15 14 12 11 11 11 8 8 5 1 1 2 4 7 2 4 4 2 6 10 14 12 11 10 11 12 13 14 15 16 17 17 17 18 19 19 20 20 21 21
26 26 22 19 16 15 11 11 11 12 9 9 8 6 5 3 4 8 3 5 3 7 4 3 13 16 12 12 12 12 13 15 18 20 20 20 22 24 24 25 25 25 26
24 27 28 24 19 17 16 14 12 10 9 8 9 10 10 9 7 9 4 3 1 1 3 4 4 10 13 14 14 14 14 15 19 23 23 24 26 28 28 27 29 30 31
19 12 32 28 23 20 17 16 14 12 12 12 13 11 9 13 12 8 6 5 6 5 2 5 12 7 5 8 9 13 19 23 23 25 25 23 25 29 32 29 30 32 33
18 17 29 28 25 23 18 18 18 15 17 16 14 14 14 14 12 12 9 6 9 10 8 15 15 15 19 20 18 19 22 25 27 28 27 26 26 27 29 32 27 29 30
26 18 25 27 26 26 23 21 21 19 18 17 19 20 18 15 18 14 15 12 11 8 9 14 17 18 18 16 19 23 27 28 28 27 26 28 31 31 32 33 31 33 33
32 31 25 30 28 27 24 24 24 23 22 19 21 21 19 18 16 15 15 14 12 12 10 11 15 15 20 24 25 26 15 16 16 18 18 18 25 20 19 23 19 19 22
36 35 32 29 29 28 27 25 25 26 25 24 21 22 20 20 20 19 19 19 19 20 21 22 21 21 21 24 17 19 23 22 25 28 30 21 19 20 26 20 21 21 21
41 38 34 33 30 30 29 28 28 28 29 27 24 26 23 23 24 23 22 22 21 21 21 22 23 20 17 18 21 26 29 30 26 21 16 18 26 20 21 24 19 22 22
37 42 40 37 33 31 32 31 30 31 30 30 30 28 27 24 25 26 25 24 24 23 23 20 23 23 29 31 32 30 26 23 6 13 17 31 23 23 23 17 14 17 15
38 35 38 36 38 38 34 33 32 32 35 33 32 32 30 28 28 26 26 26 29 30 31 31 30 32 29 30 27 26 27 26 23 28 21 26 21 21 14 10 18 12 14
38 36 35 36 37 39 39 36 35 34 36 35 35 32 31 31 28 25 26 25 31 31 30 31 32 33 34 30 27 28 29 28 26 27 23 11 19 16 16 13 8 14 17
34 37 35 35 36 36 38 40 37 38 39 40 38 36 35 34 33 30 29 30 26 24 22 22 22 24 26 24 23 27 27 21 17 15 18 14 10 15 7 3 9 20 18
36 31 34 35 38 38 38 39 41 41 39 38 41 40 37 35 31 25 28 35 34 34 32 30 29 27 25 22 20 22 22 18 18 7 6 4 6 6 4 3 15 16 19

GFSMA_925_spd_060.txt.gz
Wind_Speed
11 6 11 7 7 8 6 6 9 11 13 15 19 14 13 12 12 12 11 9 9 9 8 7 6 6 5 5 4 4 1 0 1 1 2 3 4 4 5 6 7 7 8
13 7 12 7 9 6 6 7 6 6 8 12 16 14 12 12 13 12 10 10 8 7 7 6 6 6 5 4 3 3 3 3 3 3 3 3 4 6 7 7 7 8 8
12 8 10 8 10 6 9 9 7 10 11 15 16 16 11 11 11 9 9 9 8 6 6 6 5 5 5 5 4 5 5 4 4 5 5 6 6 5 6 7 7 7 7
9 10 10 9 11 11 11 8 8 11 7 15 14 14 11 9 9 7 7 7 7 6 5 5 5 5 5 5 5 6 6 6 7 8 8 8 7 7 6 6 6 6 5
11 10 8 12 11 9 10 9 8 13 13 12 11 13 13 11 10 8 8 6 8 6 5 6 5 5 5 5 6 7 8 8 8 8 8 8 7 7 6 6 6 5 4
14 11 13 12 9 8 10 10 9 9 14 12 11 13 12 12 14 10 10 9 7 8 7 6 7 6 3 3 5 7 8 8 8 9 9 8 8 7 6 6 6 4 4
12 17 14 11 7 12 8 7 6 4 8 10 9 8 10 14 14 14 13 13 11 10 10 8 8 6 5 4 5 5 6 6 7 8 8 8 7 6 6 6 5 4 4
10 13 16 13 11 11 9 8 6 4 8 9 6 4 1 3 11 15 17 17 16 12 13 11 9 8 7 5 6 6 5 5 6 6 7 7 7 7 7 6 6 5 5
12 12 15 13 9 14 11 9 6 8 10 7 5 2 2 3 2 2 8 18 16 16 14 11 10 6 6 6 5 6 7 6 6 7 8 8 8 8 8 8 8 8 7
14 13 11 13 13 12 12 10 7 5 7 6 5 3 0 3 2 2 3 10 9 13 14 14 12 10 8 7 8 8 8 9 8 9 9 9 9 10 10 10 10 11 11
17 13 13 14 15 12 11 11 8 6 6 3 4 3 2 2 2 2 2 4 10 12 13 15 14 13 12 10 8 8 8 10 11 12 12 12 12 13 13 13 14 14 14
21 16 15 15 15 11 14 11 9 8 6 4 3 5 3 0 1 1 2 6 6 6 14 16 14 12 11 11 10 10 11 12 14 16 16 16 16 17 17 17 18 18 18
23 23 20 17 16 16 14 14 11 10 9 6 3 3 3 2 2 3 0 2 1 5 5 15 16 14 13 12 12 14 14 15 18 20 20 21 21 21 20 21 22 23 24
28 26 25 21 18 18 15 15 14 12 11 10 8 4 4 3 1 7 3 1 2 2 2 6 8 19 19 17 17 18 21 20 22 23 24 25 25 24 25 25 25 26 28
30 30 26 24 21 20 18 15 15 13 13 12 11 10 10 8 6 5 5 4 2 1 2 1 2 9 9 19 19 19 20 21 21 24 24 25 28 27 27 26 26 29 31
31 28 30 28 24 22 20 18 15 14 15 13 12 11 11 11 10 7 6 4 4 2 1 3 10 8 8 9 11 15 21 23 24 27 29 30 31 30 30 32 33 30 31
29 28 28 32 29 25 23 21 18 15 15 14 13 13 14 10 10 8 8 8 6 4 5 13 13 13 15 18 16 17 21 25 26 25 26 28 28 27 24 29 26 21 19
24 30 26 28 35 30 25 24 21 19 18 17 16 16 14 10 11 13 11 10 11 10 9 13 15 15 17 17 22 22 22 14 18 18 19 18 22 21 16 20 18 15 17
30 23 23 25 33 33 28 26 24 22 21 20 17 18 19 18 18 14 14 13 12 12 10 12 17 20 22 22 22 21 13 22 29 27 23 16 13 19 21 16 20 15 13
40 32 28 28 34 34 31 28 27 25 24 23 22 21 20 21 19 19 18 18 17 17 18 20 21 22 21 21 18 17 26 31 29 25 17 13 23 19 17 18 14 15 13
42 42 36 32 32 35 35 34 31 28 26 25 25 24 24 21 22 20 20 21 20 21 21 21 22 23 23 21 23 28 30 27 27 21 16 22 27 22 21 15 13 15 11
47 43 41 41 37 37 37 36 32 30 28 28 28 27 26 25 25 23 23 23 23 25 25 24 25 23 27 30 31 28 26 24 8 17 14 28 25 21 17 13 11 7 11
43 41 40 41 40 40 38 36 33 32 31 32 32 31 29 28 27 26 26 24 24 25 27 28 28 31 32 32 29 28 30 26 22 29 22 24 23 17 13 11 5 8 13
38 38 39 40 40 42 41 39 36 35 35 35 36 35 33 31 29 27 27 27 27 27 27 29 32 34 33 31 30 25 26 26 27 28 20 8 14 12 11 7 7 13 16
34 37 37 37 40 40 42 44 42 38 38 39 37 36 36 34 32 28 28 29 30 30 28 28 24 24 24 25 25 25 26 21 11 16 18 12 7 6 2 4 6 14 15
36 33 35 37 38 39 39 42 41 41 39 39 40 40 38 38 36 33 31 32 34 36 33 32 30 28 27 26 23 22 22 23 17 7 4 5 4 2 2 6 6 12 18

GFSMA_925_spd_063.txt.gz
Wind_Speed
10 8 7 5 5 6 8 10 12 11 6 7 11 8 6 6 8 8 7 6 6 6 5 4 4 3 3 2 1 0 2 3 4 4 5 6 7 8 8 8 9 10 10
10 8 9 4 6 5 4 5 9 6 5 9 12 8 7 7 8 7 6 6 5 5 5 4 4 3 2 1 2 2 4 5 5 5 6 7 7 7 9 10 9 9 9
11 9 10 6 6 2 4 4 6 6 3 9 12 8 8 7 7 6 6 5 5 5 5 4 4 3 3 4 5 4 5 6 6 6 7 8 8 7 8 8 8 8 8
9 8 10 7 7 6 5 3 7 9 6 8 11 11 9 6 6 6 5 5 5 4 4 5 4 4 4 5 6 6 7 8 8 9 9 9 9 8 8 7 8 7 6
9 8 9 9 10 7 6 3 11 9 8 10 7 11 9 7 6 6 6 4 5 4 4 4 4 5 5 6 8 8 9 9 9 9 9 10 9 9 8 7 7 7 6
11 9 8 11 11 10 9 7 7 8 8 7 5 5 10 8 9 10 9 7 6 7 6 6 6 6 5 6 7 8 9 9 9 9 9 10 9 9 8 7 7 6 5
11 9 12 11 9 8 9 7 5 4 8 8 6 5 10 13 12 14 12 11 11 9 9 9 8 8 8 8 8 8 9 9 9 9 9 9 8 8 7 7 6 5 5
9 14 12 11 7 11 7 7 5 3 6 9 5 2 2 3 11 14 15 16 15 13 12 12 10 9 9 9 8 8 9 9 8 8 8 8 9 8 8 7 7 7 6
9 12 13 11 8 9 8 7 5 4 7 9 4 1 1 3 3 3 9 15 18 16 15 14 12 9 8 9 9 9 9 9 9 9 9 9 9 9 9 9 9 9 9
12 10 11 12 8 10 10 8 6 4 9 7 3 2 1 1 2 3 2 5 9 13 13 14 13 11 10 9 8 9 9 10 11 12 12 11 12 12 12 12 12 13 12
15 13 12 13 11 11 11 11 8 6 6 6 5 1 2 2 1 1 2 3 9 9 10 12 14 14 13 13 11 11 11 13 14 15 16 16 16 16 17 17 16 16 16
17 16 15 12 12 14 12 12 12 9 6 4 3 3 2 2 1 1 1 3 3 6 8 12 13 13 12 12 13 14 15 16 18 20 21 21 20 20 21 20 21 21 21
20 20 17 15 15 14 12 13 12 11 9 6 3 2 3 1 2 2 2 2 2 3 4 6 11 13 13 13 15 16 19 21 23 24 25 26 25 23 20 21 21 22 23
25 23 22 18 15 15 14 14 14 12 11 10 7 4 3 1 1 6 2 2 3 3 3 4 8 10 11 17 18 19 22 22 24 24 26 27 27 27 26 26 27 27 26
28 26 23 21 20 16 17 16 17 16 14 13 12 9 8 6 4 3 6 1 1 1 2 3 3 9 12 12 11 13 18 22 22 23 25 28 28 29 28 27 28 28 25
27 27 26 23 22 20 18 18 17 16 15 15 14 13 12 10 7 5 3 2 2 1 1 2 8 12 11 13 15 15 18 20 18 19 21 22 22 20 19 19 20 18 17
23 25 27 25 25 23 21 20 19 16 16 16 15 13 13 11 10 7 6 5 5 3 4 7 10 13 14 16 18 20 18 12 15 28 28 24 22 20 17 18 16 14 13
23 21 24 25 26 28 26 24 22 20 19 17 16 15 15 12 11 10 10 8 7 8 7 10 15 14 19 21 23 21 19 15 26 29 25 17 15 20 17 14 14 11 8
32 27 22 27 28 28 30 29 25 23 22 21 18 17 16 15 16 15 12 13 11 10 10 11 15 20 23 21 21 21 20 26 28 24 23 12 17 21 17 14 10 9 10
36 33 30 25 29 31 27 31 29 27 26 24 22 21 20 19 20 19 17 17 15 15 15 16 18 20 20 20 20 21 29 27 26 29 22 16 21 20 16 13 9 9 8
41 38 34 33 28 28 28 31 31 30 28 27 26 25 25 24 21 20 20 19 18 19 19 19 20 22 23 22 21 24 25 25 28 26 20 26 23 19 15 11 7 6 9
45 43 41 37 37 33 31 31 33 34 33 31 30 28 27 25 24 24 23 21 21 22 23 22 23 23 26 25 25 25 25 23 7 22 19 26 23 16 10 5 3 5 8
40 41 46 44 42 39 38 36 35 36 37 36 34 32 30 29 27 26 25 25 26 24 24 25 27 28 29 28 27 28 26 21 19 27 14 21 17 11 4 2 1 6 11
39 39 38 40 42 42 43 40 38 38 40 40 38 35 33 32 31 28 26 26 26 26 27 27 28 28 26 25 24 22 20 23 23 26 16 6 16 8 2 5 1 6 14
33 35 37 37 39 40 40 44 40 40 41 43 42 39 36 36 34 31 30 29 29 30 27 26 26 26 26 26 25 24 24 21 12 19 20 9 9 5 8 7 4 6 12
34 32 33 38 40 38 39 41 41 42 38 39 40 41 42 39 36 33 31 31 32 34 30 29 28 27 26 25 22 21 21 20 17 10 10 7 7 6 3 10 8 6 8

GFSMA_925_spd_066.txt.gz
Wind_Speed
4 5 4 5 5 6 5 5 4 5 2 3 3 2 2 3 4 5 5 4 3 2 1 1 1 1 1 2 2 3 4 5 6 7 8 8 9 9 10 12 11 10 10
6 6 3 3 5 4 4 5 4 2 3 3 4 3 2 2 3 3 3 2 1 1 0 1 1 2 2 4 4 4 5 6 7 7 8 9 10 9 11 11 11 10 9
7 3 3 3 5 2 3 4 3 0 1 2 3 2 1 1 1 2 1 0 0 1 2 2 2 3 4 4 5 6 6 7 8 8 9 10 11 8 7 8 9 9 8
7 6 6 4 3 3 4 3 5 3 2 1 4 3 1 1 1 1 1 2 3 3 3 3 4 5 6 6 6 7 8 8 9 10 9 8 9 8 8 8 8 8 7
6 5 6 6 6 5 2 2 5 4 2 2 1 4 4 3 3 4 4 4 4 5 5 5 5 6 7 7 7 8 8 9 9 8 8 9 9 8 7 8 7 6 6
7 5 6 8 7 6 4 2 3 4 2 2 3 2 5 5 7 8 8 8 6 6 6 6 7 7 7 8 8 8 8 9 9 9 8 8 8 8 8 8 7 7 6
8 7 8 9 9 6 5 4 3 4 3 2 2 4 6 9 11 11 11 12 10 9 10 9 9 9 8 8 8 9 9 9 9 9 9 8 8 9 8 8 8 7 7
7 9 8 9 8 7 7 6 4 2 3 3 1 2 3 4 5 9 12 13 14 13 13 12 12 10 9 8 8 9 9 10 11 11 11 10 10 10 10 9 8 8 8
4 9 9 8 6 11 7 6 3 1 3 4 2 1 2 2 5 3 4 8 11 13 14 13 13 11 10 9 9 9 10 11 12 13 13 13 13 13 12 12 11 10 10
7 5 10 10 8 7 8 6 4 1 4 3 1 1 2 2 1 3 3 3 5 8 9 9 9 10 11 11 11 11 12 13 14 16 16 16 16 16 15 15 14 13 13
8 8 8 9 8 8 8 7 4 1 2 2 2 2 3 2 2 1 2 6 6 6 8 9 9 10 9 11 12 12 13 15 16 18 19 19 19 18 18 18 18 18 16
11 11 9 9 9 10 8 9 8 6 3 3 2 4 2 2 2 2 1 2 4 5 7 7 8 8 9 10 11 13 15 18 20 23 24 23 22 21 21 21 21 21 19
15 14 13 12 11 9 10 9 10 9 7 5 1 2 2 2 3 4 3 2 2 4 4 5 10 9 9 10 13 15 18 20 20 21 22 23 23 21 20 19 21 23 25
18 15 14 13 9 9 9 9 11 11 8 7 5 3 2 1 2 5 4 3 2 3 3 4 7 12 14 15 14 15 17 17 18 18 20 21 21 20 18 16 15 16 18
19 20 17 15 14 12 10 11 12 12 11 11 10 8 7 5 4 4 5 3 2 1 2 3 2 11 12 13 15 15 18 17 12 20 24 22 21 19 17 16 15 13 14
16 19 20 18 16 16 13 12 12 11 13 14 13 12 11 9 7 6 5 3 3 2 2 3 8 12 14 13 17 18 17 14 12 24 23 23 17 18 15 14 14 11 11
15 18 20 18 19 18 16 16 14 13 13 13 13 13 12 10 9 8 7 6 5 5 4 8 12 14 14 18 21 19 17 13 21 22 21 16 13 20 15 13 11 11 9
24 16 17 16 17 20 19 19 18 16 16 15 14 13 13 11 10 9 9 9 9 7 8 10 14 15 19 19 19 19 15 19 21 18 20 12 14 17 15 14 11 8 7
30 26 20 18 19 19 20 21 23 21 18 18 16 15 14 13 13 11 12 11 11 11 10 11 14 17 20 20 21 19 19 19 18 21 20 11 18 14 13 11 8 7 7
35 33 30 26 22 20 21 21 21 25 23 20 19 19 18 17 16 14 15 15 14 15 14 14 17 19 20 21 20 19 22 22 24 22 18 16 16 13 11 8 5 5 8
39 38 36 32 29 25 23 23 23 24 28 25 22 21 22 21 20 19 19 17 17 17 17 17 19 18 20 20 18 18 21 24 25 17 21 23 20 11 8 4 4 7 9
39 41 40 39 37 34 31 27 24 24 27 28 26 24 23 23 23 22 22 22 21 21 22 20 19 17 21 22 22 22 22 15 6 16 20 22 16 10 6 3 3 6 10
40 40 41 41 41 40 38 35 32 28 28 29 29 28 28 26 24 23 23 24 25 25 26 26 26 23 25 24 24 24 19 17 12 22 13 17 10 9 4 3 2 4 10
37 39 40 41 42 44 42 40 38 36 34 34 33 32 32 30 28 26 24 25 26 26 26 26 27 27 27 24 22 21 19 20 20 23 15 6 13 9 7 7 5 4 9
34 36 37 37 39 42 41 41 41 40 40 40 39 37 36 35 34 30 27 27 28 30 28 27 27 27 25 24 22 22 20 14 10 9 14 9 14 6 9 11 9 7 8
34 33 34 37 39 41 39 37 37 39 34 38 38 40 39 38 37 35 32 31 30 33 29 27 28 27 25 25 22 22 21 17 13 7 7 6 11 6 3 10 14 11 8

GFSMA_925_spd_069.txt.gz
Wind_Speed
6 6 6 6 5 5 5 6 7 8 6 5 5 4 4 4 4 4 4 3 3 3 4 4 5 5 5 4 5 5 7 7 8 8 9 10 10 10 10 11 12 9 8
5 3 4 4 4 5 5 5 5 7 7 7 6 5 5 3 4 3 3 3 3 3 3 3 4 4 4 6 7 6 5 7 7 8 8 10 11 10 8 8 10 9 7
2 1 3 3 6 4 4 3 3 6 6 5 5 4 4 3 3 2 2 3 4 5 3 4 4 4 4 3 5 7 8 8 9 9 10 9 9 10 8 7 8 7 6
0 3 5 4 4 6 5 4 3 4 6 5 3 3 3 2 2 2 2 3 3 3 5 4 3 4 5 5 6 7 8 9 10 10 8 9 9 9 8 9 8 7 6
1 3 4 5 5 6 5 4 5 4 3 4 4 2 1 2 2 2 2 3 3 3 3 6 6 6 6 6 6 6 7 9 9 9 9 9 9 9 9 8 8 7 6
3 3 6 5 7 5 5 5 5 5 4 2 3 2 1 2 3 3 4 4 4 5 4 6 5 6 7 7 7 8 9 8 8 9 9 9 9 9 9 9 8 8 7
5 4 5 9 7 5 4 5 5 3 2 1 2 2 3 5 6 6 5 5 5 5 6 6 6 6 6 8 7 8 9 9 9 9 10 10 10 10 9 9 9 9 8
5 7 7 9 8 6 6 5 4 3 3 3 1 2 3 1 2 2 3 5 6 6 6 7 7 8 8 7 7 8 8 9 10 11 11 11 11 11 10 10 9 9 9
4 9 9 8 6 6 5 6 4 2 3 2 1 2 2 3 5 1 2 2 4 4 5 6 6 7 8 8 8 8 8 10 11 13 13 14 14 14 13 13 12 11 11
6 7 10 8 6 8 7 6 4 1 3 4 2 0 1 1 3 2 3 2 2 3 4 5 5 5 7 7 8 8 10 12 14 15 16 17 17 16 16 16 14 12 12
8 7 7 10 10 7 9 8 5 2 2 3 2 1 0 1 1 2 3 4 3 3 4 4 4 4 5 7 8 10 13 15 16 16 16 16 16 16 17 17 18 18 16
9 9 8 9 8 7 9 7 7 5 3 2 1 1 0 2 3 4 3 3 4 4 5 6 4 4 6 7 9 12 13 15 15 15 16 16 16 15 15 15 17 18 20
11 11 11 10 9 8 9 7 9 8 5 4 2 1 1 2 3 4 4 5 4 4 4 6 9 11 9 12 12 13 13 14 14 13 17 18 19 19 16 12 12 13 15
12 11 12 10 8 9 9 9 8 7 8 6 4 2 2 1 1 3 5 5 3 3 2 1 3 8 8 10 12 14 13 15 8 17 20 21 19 19 15 14 12 10 10
12 13 12 11 10 9 8 9 8 9 9 7 6 5 3 2 1 1 3 2 4 3 3 3 2 8 9 8 12 15 14 13 10 19 20 20 14 18 18 16 14 12 11
16 13 15 15 13 12 12 11 10 9 10 8 7 7 7 5 4 3 2 1 1 2 3 3 6 8 11 11 13 15 13 11 15 17 19 18 11 17 18 16 15 14 12
17 14 15 15 15 15 14 14 12 11 11 10 10 9 8 8 6 5 5 5 5 4 8 8 7 9 11 12 15 15 12 12 15 15 19 14 11 14 16 15 14 11 9
23 18 15 15 15 16 16 16 13 13 12 11 10 10 10 9 8 7 8 8 8 7 8 10 10 10 11 13 15 14 12 13 14 15 18 10 13 13 14 13 9 8 7
26 22 20 17 16 17 18 18 17 16 14 13 12 12 11 10 10 9 9 9 8 8 9 10 13 11 12 12 15 14 13 13 13 17 17 12 14 12 11 10 7 6 8
31 27 26 24 20 19 19 18 18 17 17 16 15 14 14 13 12 11 10 11 10 10 11 12 13 13 12 12 13 14 15 14 16 14 14 12 13 10 8 5 3 4 8
31 34 29 26 25 21 20 19 18 18 17 17 17 16 16 17 17 15 13 12 11 12 13 13 15 15 14 12 13 14 15 15 16 9 13 11 9 6 6 3 2 4 6
32 30 30 29 28 27 27 27 23 18 18 17 19 20 19 20 19 18 18 19 18 15 15 15 17 17 15 14 13 14 16 13 10 9 14 14 9 5 2 3 5 4 5
30 29 30 31 35 35 34 35 32 25 21 19 20 20 20 19 21 18 18 19 20 22 23 22 21 21 19 17 15 16 15 14 15 16 14 15 9 7 4 8 7 6 6
28 30 29 31 34 36 41 41 40 36 27 26 24 24 25 23 21 21 18 17 18 18 21 24 25 24 21 18 16 16 15 16 16 16 12 10 11 10 6 8 10 10 8
25 28 28 29 29 37 39 40 40 33 32 32 31 30 29 28 31 31 26 22 21 22 20 23 25 27 25 23 21 19 17 17 18 16 10 12 12 8 7 8 12 14 12
24 24 25 26 30 34 37 38 37 32 31 34 33 33 35 37 36 36 33 25 24 26 20 19 19 20 22 24 22 23 19 19 20 15 13 10 12 6 6 6 9 15 15

GFSMA_925_spd_072.txt.gz
Wind_Speed
10 9 8 7 6 7 8 9 9 8 9 10 10 9 9 9 8 7 7 5 4 5 5 4 4 4 5 6 7 6 7 8 8 8 9 10 11 11 9 8 10 8 7
8 7 8 7 6 7 8 8 9 8 9 10 10 9 8 8 8 6 7 5 5 4 3 3 3 3 3 5 5 6 6 7 8 9 9 10 10 11 8 8 8 7 6
5 6 6 6 6 5 5 6 7 7 8 8 8 7 7 6 7 7 5 5 3 6 4 3 3 3 3 3 4 6 7 8 8 10 9 8 9 9 7 7 8 7 5
5 5 6 7 5 6 6 5 6 7 7 7 7 7 8 7 6 6 5 4 4 4 2 6 3 4 4 5 5 6 7 8 8 9 9 8 8 8 7 7 7 6 5
6 6 6 5 5 6 5 6 6 5 7 7 9 6 6 5 4 5 3 3 4 4 3 4 7 5 6 5 5 6 7 7 7 8 8 8 9 8 8 7 6 6 5
5 6 8 6 7 6 7 7 6 5 5 4 5 6 3 3 2 2 2 2 3 2 2 3 3 3 7 6 5 6 7 7 7 8 8 8 8 8 8 7 7 7 6
2 7 7 8 6 6 6 6 7 5 6 4 4 4 3 3 2 0 0 1 2 1 1 2 2 2 2 7 6 6 6 7 8 8 8 9 10 10 9 9 9 9 8
5 5 6 8 7 7 6 6 3 6 4 2 4 2 2 8 5 3 2 1 1 1 1 1 1 1 1 1 3 6 6 7 9 10 11 11 12 12 12 11 11 11 10
5 8 8 8 7 6 8 5 4 1 6 2 2 7 1 5 4 4 4 4 3 2 2 2 1 0 1 1 3 6 9 10 11 12 13 14 14 15 15 14 13 12 12
6 8 9 8 6 7 6 6 4 1 3 7 2 3 4 4 4 7 7 6 4 3 3 2 3 2 0 2 4 6 8 11 12 12 13 14 15 16 16 17 16 16 14
6 7 10 9 7 8 7 6 5 2 4 2 1 1 2 2 3 5 5 8 7 5 4 3 2 2 1 2 4 7 10 10 11 11 12 13 14 15 16 16 17 17 16
9 9 8 10 10 7 8 7 6 4 3 2 2 1 2 3 6 3 6 4 5 6 5 4 3 2 3 3 4 8 9 12 11 11 14 15 17 18 17 14 14 14 15
10 10 10 9 8 9 9 8 8 7 5 4 3 1 1 2 3 5 3 4 3 5 4 5 4 4 4 5 6 11 11 14 8 13 16 18 16 17 18 13 12 11 11
9 10 11 10 9 9 10 9 9 10 8 5 4 2 2 2 0 3 6 5 3 4 6 2 1 3 4 6 7 13 11 15 9 14 15 16 13 16 18 15 13 11 11
10 10 12 12 10 10 11 10 10 9 8 9 7 6 6 4 2 1 2 3 6 2 2 5 2 2 6 7 11 13 12 14 10 16 15 16 12 14 17 16 14 12 11
13 12 14 13 12 12 10 10 10 10 11 10 10 9 8 7 6 5 4 3 3 6 5 1 5 6 8 9 10 13 13 13 11 14 17 16 9 14 15 14 13 11 9
15 16 15 15 14 13 13 12 10 9 11 11 11 11 11 9 10 8 7 7 7 7 9 9 7 6 10 10 12 13 13 12 12 14 17 14 9 12 12 11 10 9 7
18 16 14 16 16 16 15 14 13 11 12 12 12 12 12 13 11 10 10 10 10 8 11 11 11 12 9 11 12 13 13 12 13 10 16 13 11 11 10 8 7 6 7
21 19 17 15 15 16 17 17 16 14 13 13 12 12 13 13 14 13 11 11 11 10 11 12 13 12 11 12 12 13 12 12 12 14 12 8 10 12 8 5 3 3 6
22 23 21 18 16 17 18 18 17 16 16 16 16 15 14 14 14 13 13 12 12 12 13 14 15 14 12 11 12 14 14 14 13 15 11 10 10 7 9 4 2 3 5
23 24 24 23 21 20 21 21 20 18 18 18 17 17 16 17 17 16 15 14 13 14 15 15 15 14 14 11 11 15 16 15 16 12 10 14 10 5 4 7 5 4 4
24 24 24 25 25 26 25 24 23 20 19 19 18 19 19 19 20 22 22 21 18 16 17 18 18 16 15 15 14 15 16 17 15 12 13 17 14 10 8 7 11 9 7
28 28 27 27 28 29 30 30 29 27 23 21 21 21 21 22 22 20 20 22 23 23 25 23 21 21 19 17 16 16 16 16 17 17 19 18 15 11 9 11 14 11 10
25 28 30 30 30 30 31 33 35 32 29 28 26 24 24 25 23 22 21 21 20 19 21 24 26 26 23 21 19 18 17 18 18 17 14 17 15 17 7 9 16 12 12
25 26 28 29 29 31 32 34 35 32 33 33 32 32 30 29 29 28 27 24 24 23 22 25 26 26 27 27 24 20 21 19 19 17 14 16 14 18 9 12 13 15 14
25 24 26 28 29 30 30 35 37 31 30 32 34 35 37 38 33 33 32 29 27 27 25 24 20 23 26 28 29 30 24 23 22 19 15 12 15 15 13 6 10 13 14

GFSMA_925_spd_075.txt.gz
Wind_Speed
9 9 5 9 9 9 7 9 10 10 10 10 9 9 9 8 7 12 8 5 4 5 5 4 4 4 5 5 5 5 6 6 7 7 8 10 10 10 8 7 8 7 6
8 9 7 8 7 9 8 10 6 9 8 10 9 8 7 8 6 5 11 9 6 4 4 3 3 3 2 4 4 5 6 6 7 7 7 7 8 8 7 6 6 6 5
4 6 6 8 7 8 7 7 7 6 12 9 9 7 8 8 8 3 5 9 6 9 7 4 4 3 2 2 3 4 5 6 6 7 7 6 7 7 6 5 6 5 5
6 3 6 5 7 7 8 5 5 2 11 10 6 5 8 9 7 5 5 3 6 7 8 9 5 4 4 4 4 4 5 6 6 7 7 7 7 7 7 6 6 6 5
5 4 6 5 4 3 4 8 5 6 7 11 13 6 7 8 8 8 5 3 4 3 5 5 5 6 6 5 4 4 5 6 6 7 7 8 8 8 8 7 7 6 6
5 5 5 7 6 9 6 9 1 8 3 8 1 6 5 5 2 3 7 7 5 5 4 2 3 1 7 6 5 5 5 6 6 7 7 8 8 8 8 8 8 7 7
7 6 8 6 6 8 10 6 6 2 2 2 11 5 7 7 6 3 2 3 6 4 3 3 2 2 2 5 5 5 5 5 6 8 9 10 10 11 10 10 10 10 9
6 6 10 10 6 8 5 3 3 7 6 2 6 12 5 8 7 7 3 4 2 3 4 4 2 1 1 1 3 5 7 8 10 11 12 13 14 14 14 13 13 11 11
6 5 6 4 7 5 11 5 4 2 2 2 3 8 5 0 9 9 6 6 5 5 4 4 3 3 1 1 5 4 8 10 11 12 13 14 15 16 17 17 16 15 13
6 8 8 5 8 5 12 7 3 3 2 6 3 6 5 5 3 7 7 6 6 7 4 5 4 4 2 3 3 6 10 11 11 11 12 13 16 17 17 16 15 15 15
7 9 10 8 7 8 5 6 4 4 3 3 2 3 3 0 1 7 8 9 6 5 6 2 3 3 2 1 4 7 9 10 10 9 13 16 18 17 17 14 13 12 12
9 8 10 9 8 7 7 7 6 4 6 4 7 2 3 2 11 2 5 3 9 4 5 4 2 2 2 2 1 9 8 11 12 10 16 17 16 16 18 16 14 12 11
11 13 10 10 9 7 7 8 8 5 4 4 6 10 2 3 7 3 8 2 8 6 4 4 3 1 3 4 3 11 10 9 14 11 16 18 16 15 18 16 14 11 10
14 16 11 10 10 10 8 9 9 9 10 7 6 8 8 9 2 8 6 3 2 5 5 4 3 1 3 5 6 13 9 10 16 11 15 19 16 14 17 16 14 11 10
8 11 10 11 10 9 10 10 11 12 9 9 7 7 10 8 7 4 2 7 10 3 7 6 6 3 4 8 9 10 11 12 14 8 11 20 14 13 15 15 13 11 9
10 7 13 11 11 10 9 10 13 11 11 10 12 13 12 13 6 6 6 4 7 10 5 3 4 4 5 10 8 12 12 16 16 8 8 18 14 14 13 12 11 10 8
10 9 6 10 10 11 12 12 12 8 11 12 12 8 10 13 10 10 9 9 8 8 10 12 9 4 4 10 11 12 12 14 7 7 9 15 12 13 11 10 8 7 7
15 14 12 13 14 14 13 14 14 12 12 13 14 14 13 14 15 17 10 8 10 9 10 11 13 15 14 11 11 14 13 12 12 11 13 13 8 10 9 8 5 4 6
18 17 17 16 15 16 16 16 16 15 13 14 14 14 15 15 15 16 13 16 14 13 13 14 14 14 14 13 13 14 13 12 12 8 14 8 11 8 7 6 4 3 5
19 19 19 19 18 17 17 17 18 17 16 16 15 15 15 16 16 16 16 14 15 14 13 14 16 16 15 13 11 14 13 13 14 14 11 9 14 10 8 5 4 4 4
21 21 21 21 20 19 20 21 20 19 19 18 18 17 19 18 18 18 17 18 16 16 16 16 16 16 14 12 10 12 17 16 15 15 14 10 10 11 11 7 6 5 6
22 22 22 23 24 25 25 24 22 23 24 22 21 21 20 19 22 23 25 25 18 13 16 17 18 17 15 14 15 15 16 17 17 14 15 16 17 15 14 9 11 8 10
22 24 25 24 26 28 28 27 27 26 24 22 22 20 22 23 25 22 23 26 27 26 26 25 20 20 20 17 17 17 17 17 19 20 19 19 15 16 15 13 11 11 13
20 23 25 26 26 28 32 32 32 31 30 30 25 22 25 26 23 23 23 22 23 24 27 29 30 32 27 25 23 21 20 21 20 21 20 18 17 15 17 12 14 14 14
21 22 23 25 27 29 31 33 35 31 32 32 32 33 29 27 27 29 25 24 24 25 24 28 28 28 27 25 24 21 22 21 20 20 19 18 17 17 18 17 14 13 12
21 22 23 27 28 29 29 33 33 33 31 32 32 35 39 38 35 32 33 29 29 29 24 26 21 27 31 33 31 31 25 25 23 21 22 19 16 16 16 15 10 15 15

GFSMA_925_spd_078.txt.gz
Wind_Speed
8 14 8 11 8 7 10 9 9 8 10 11 9 10 10 13 13 10 10 7 6 6 5 4 3 3 3 4 4 4 4 5 6 6 5 6 5 7 6 5 6 6 5
6 6 10 8 14 13 12 11 7 10 9 8 9 8 7 4 10 7 9 10 7 6 5 4 2 2 1 2 3 4 4 5 5 6 5 5 5 5 5 4 5 5 4
5 3 8 11 6 8 9 5 5 9 14 8 8 8 9 6 5 7 6 5 10 8 6 5 4 3 2 2 2 4 4 5 5 5 5 5 5 5 5 5 4 4 4
5 12 3 12 9 6 10 7 3 8 11 11 8 9 8 9 6 5 9 8 5 7 9 6 6 5 4 4 4 4 5 4 5 6 6 6 6 6 6 6 5 5 4
8 7 6 7 5 5 11 6 5 5 6 4 4 7 8 8 7 8 4 7 7 6 5 4 4 7 6 5 4 4 4 5 6 6 7 8 8 8 8 7 6 6 6
5 4 9 12 5 4 12 3 3 4 6 4 8 7 10 11 9 11 8 12 6 10 5 3 4 3 7 7 5 5 5 6 7 8 9 10 10 10 10 9 9 8 8
6 9 7 10 2 9 11 5 4 1 5 4 2 7 9 7 6 7 12 14 5 8 3 3 4 4 1 4 5 5 6 7 9 10 12 13 14 14 14 14 12 11 10
8 3 8 6 8 10 11 3 3 5 6 5 5 7 3 10 11 6 5 6 1 6 8 3 1 3 4 5 4 6 7 10 12 13 14 15 16 16 16 16 15 14 13
9 7 8 4 7 3 7 6 3 4 4 2 1 3 3 1 5 6 9 6 8 4 4 4 6 1 2 4 6 4 9 13 12 12 12 14 16 18 17 15 13 13 14
11 6 9 5 6 2 10 8 2 1 5 8 5 3 3 1 0 1 10 4 5 7 5 8 7 6 3 6 4 4 9 11 12 10 13 16 17 16 18 16 12 10 9
9 11 10 7 6 7 11 5 5 4 5 8 10 3 2 1 6 2 3 7 12 9 4 2 4 7 4 3 3 9 8 11 15 11 16 17 16 15 17 17 14 12 10
10 11 10 10 5 6 9 10 4 0 5 6 9 11 8 3 8 11 4 10 9 10 8 4 3 2 0 6 1 10 9 10 15 12 15 17 17 13 16 16 14 11 9
15 17 14 12 10 7 8 8 8 3 4 4 7 9 14 6 7 11 12 5 9 6 5 8 5 1 2 1 4 10 11 10 13 12 14 18 16 12 15 15 14 11 8
9 5 11 11 10 8 8 8 8 10 6 6 8 7 12 9 12 7 11 12 3 4 8 5 7 4 3 6 6 8 12 14 15 14 13 16 16 14 15 14 13 11 8
13 13 12 12 10 11 9 11 12 12 9 12 9 11 11 11 15 3 6 9 6 2 3 8 4 8 2 3 11 10 11 14 18 18 13 12 15 15 13 12 11 9 8
13 6 13 13 12 12 10 11 11 11 11 12 11 12 13 11 14 8 5 9 5 8 2 5 5 6 3 7 10 12 17 12 15 13 7 8 10 14 13 10 8 8 7
4 16 19 12 12 13 12 13 13 8 13 14 13 7 16 9 15 14 8 10 10 10 8 14 11 6 11 13 12 13 15 13 14 15 12 8 8 11 11 9 6 6 7
14 11 9 10 17 13 14 14 13 12 14 13 12 12 10 11 12 15 14 14 13 12 12 15 17 19 15 16 15 12 14 14 12 17 14 11 7 10 8 6 5 4 6
18 16 16 16 14 14 14 15 15 15 13 15 14 14 14 14 15 16 15 14 14 13 14 16 19 16 16 16 17 16 14 18 18 13 11 11 10 11 9 6 6 4 5
19 20 18 19 18 17 17 17 16 18 15 13 16 16 16 18 18 17 18 19 19 18 16 17 17 19 22 22 20 16 12 12 13 11 15 15 12 14 12 9 8 5 4
22 21 21 21 20 21 19 20 20 20 18 19 18 16 18 17 19 18 18 18 20 20 19 19 21 22 21 11 11 13 14 14 14 16 17 15 17 15 18 14 13 9 6
20 21 23 22 24 23 23 23 22 21 22 23 21 20 21 20 20 23 21 24 25 18 19 19 18 17 20 14 15 16 18 17 10 14 18 24 20 22 26 19 15 13 9
19 21 22 23 24 26 27 25 22 25 23 23 24 24 22 22 25 26 27 26 27 28 28 27 26 25 24 28 24 22 18 18 20 25 23 25 20 21 21 19 16 16 10
16 20 21 23 25 25 27 30 28 25 27 29 27 22 26 26 26 20 21 25 26 25 26 28 32 34 34 33 30 26 23 24 26 26 24 20 26 27 24 17 12 14 11
12 20 22 23 23 25 28 29 29 32 30 31 30 32 33 27 27 28 28 27 24 27 25 25 26 28 28 26 25 22 22 19 20 25 24 25 26 24 19 16 16 17 16
14 14 19 24 27 28 27 30 32 31 27 29 30 33 35 35 38 31 29 33 29 32 26 25 25 23 28 32 31 31 30 24 22 21 27 23 25 22 21 16 17 17 21

GFSMA_925_spd_081.txt.gz
Wind_Speed
11 11 8 6 5 6 8 12 4 3 11 12 13 22 15 9 9 10 10 8 7 6 5 5 4 4 2 2 1 2 2 2 2 3 2 3 4 5 4 4 4 4 3
11 12 11 10 6 8 9 7 6 6 10 8 11 13 15 8 5 7 9 9 7 5 4 3 3 2 1 1 1 2 2 3 3 4 4 4 4 4 4 4 4 3 3
9 6 12 13 12 12 11 7 8 8 11 9 9 8 8 9 4 5 5 6 8 6 5 4 4 3 2 2 2 2 3 4 4 5 5 5 5 5 5 5 4 4 4
9 10 11 10 9 9 7 9 10 8 6 8 7 7 8 7 8 4 5 4 4 5 7 7 5 4 4 4 3 3 4 5 5 6 6 7 7 7 7 6 6 6 5
7 7 7 9 7 8 9 5 3 5 6 6 5 9 10 9 7 8 9 4 6 5 4 5 6 5 4 4 4 4 4 5 6 7 8 8 9 9 9 8 7 7 7
6 5 10 11 8 13 12 6 8 8 4 6 4 6 11 13 9 11 8 7 5 5 2 3 2 3 5 5 4 5 5 6 8 9 11 12 12 12 12 11 10 9 8
9 7 8 8 7 10 11 10 7 6 4 2 4 3 8 12 13 15 13 9 9 7 5 2 1 1 3 2 3 5 7 9 11 12 13 13 13 13 13 13 12 12 11
9 10 8 7 5 8 8 6 1 2 2 4 2 3 2 2 7 5 18 11 8 11 8 4 3 4 4 6 6 6 8 12 13 13 12 13 13 13 12 12 10 11 12
11 7 10 6 13 6 7 5 3 2 4 1 1 2 1 1 1 4 12 9 7 12 11 5 6 2 5 5 7 7 7 11 12 10 13 14 14 13 14 13 9 8 7
10 5 7 6 8 5 6 6 3 3 5 8 6 3 1 2 2 2 7 8 8 10 10 8 10 3 2 3 5 4 6 11 14 9 14 15 14 14 15 14 12 9 7
10 9 8 6 7 6 10 5 4 2 5 7 13 8 2 4 5 2 3 4 8 11 10 11 13 10 4 3 6 8 9 11 13 11 13 15 14 13 15 14 13 10 8
10 11 11 10 7 8 7 7 4 1 1 5 8 9 15 4 5 3 1 5 12 14 8 3 4 10 7 7 4 6 10 11 10 11 13 15 15 12 14 15 13 10 8
13 13 14 12 11 9 11 7 6 4 3 2 5 7 9 10 13 8 4 3 4 6 10 9 5 4 6 5 3 6 9 11 11 12 12 14 14 12 13 14 12 10 8
15 15 13 14 12 12 11 9 10 10 5 4 4 6 7 9 12 15 8 7 3 6 5 4 10 7 5 2 1 8 11 15 13 15 14 12 12 13 13 13 11 9 7
13 15 15 11 12 12 10 11 11 7 9 8 9 7 8 8 11 14 7 8 4 2 2 2 1 7 4 4 8 12 14 18 13 15 15 10 9 10 11 11 9 8 7
14 11 18 15 14 14 12 10 8 11 11 11 16 11 11 8 10 12 13 14 7 1 1 6 11 2 1 8 13 15 16 17 11 13 10 6 7 7 8 9 7 6 7
13 18 19 16 14 12 13 14 12 12 9 13 11 11 8 7 9 12 11 10 12 8 4 5 8 7 13 15 13 18 17 18 16 15 16 12 9 8 6 6 6 5 6
16 14 14 16 17 17 15 14 14 14 12 17 17 17 13 8 9 10 10 11 9 11 10 13 15 16 15 13 17 18 15 19 21 20 16 12 12 11 8 7 6 6 5
17 15 13 17 22 16 15 19 15 15 12 14 14 13 14 13 15 15 15 14 12 12 12 12 15 15 17 21 23 23 24 21 12 14 12 15 12 14 11 10 8 7 7
20 20 18 19 17 17 20 18 18 18 17 17 15 16 17 16 16 17 15 15 15 17 18 16 17 18 20 22 15 13 11 10 11 12 16 19 14 13 14 13 12 12 10
22 22 21 21 20 22 22 22 22 21 19 21 20 18 18 19 19 20 19 18 16 17 18 16 14 14 14 12 9 14 18 19 20 19 20 16 21 22 19 17 19 16 14
22 23 22 22 24 22 24 24 24 25 23 21 22 23 23 21 20 22 21 20 22 20 19 17 18 18 20 18 21 22 22 21 9 14 18 27 23 22 21 21 22 19 19
19 21 22 22 24 25 26 24 25 30 29 27 25 24 23 22 22 23 23 26 28 27 26 26 27 29 29 30 29 29 27 25 23 23 22 27 24 27 27 26 24 22 22
4 10 18 20 23 25 27 28 30 28 23 26 28 28 29 28 27 25 26 20 24 28 29 28 28 30 29 28 28 28 26 25 25 26 21 23 30 29 28 28 23 17 20
11 9 9 15 19 23 25 27 27 30 31 32 29 28 29 30 27 24 28 29 27 28 27 27 27 27 26 24 26 27 26 23 20 27 28 20 30 28 27 22 17 12 14
16 15 14 12 15 21 22 24 25 29 33 33 32 33 33 35 32 31 32 31 33 36 33 31 28 29 29 30 27 29 29 28 22 21 23 14 23 18 6 17 12 14 17

GFSMA_925_spd_084.txt.gz
Wind_Speed
12 9 6 4 4 4 6 3 3 10 12 14 11 16 14 9 9 8 8 7 6 5 4 3 2 2 1 1 1 1 2 4 4 4 4 5 6 5 4 3 3 2 2
11 10 6 6 5 6 5 3 4 5 9 16 17 15 11 10 8 7 7 7 5 4 3 2 2 2 2 2 2 2 3 3 4 4 5 5 5 5 5 5 4 4 3
7 11 6 6 7 6 5 3 3 6 8 12 14 13 9 9 7 4 5 5 5 3 3 2 2 1 1 1 1 2 3 4 5 5 6 6 6 6 6 6 6 5 5
8 8 11 9 5 4 5 2 5 4 3 4 6 6 6 7 5 2 4 3 3 5 5 3 2 2 1 2 3 3 4 5 5 6 7 8 8 8 8 8 7 6 6
9 7 7 8 7 5 7 4 8 4 0 4 3 4 5 6 7 6 6 4 3 2 2 3 4 3 2 2 3 3 4 5 7 9 10 11 12 12 12 12 10 9 7
8 5 10 8 8 8 9 4 6 6 3 6 5 7 9 12 9 8 7 6 4 3 2 1 2 3 3 2 2 3 5 7 9 11 12 13 13 13 13 13 13 12 10
9 5 8 8 4 9 9 3 5 2 3 3 4 4 8 10 12 13 12 9 8 4 3 2 1 3 4 6 7 7 8 9 11 11 11 12 13 12 12 11 12 12 13
11 8 10 10 10 8 7 6 3 1 1 4 3 0 2 2 4 9 17 15 12 9 8 7 5 3 3 5 7 9 11 11 11 10 11 12 12 11 12 11 9 8 9
11 9 10 9 10 7 7 5 2 1 1 4 5 3 2 2 3 1 10 18 13 13 8 8 6 6 6 5 8 10 6 9 11 9 12 13 11 12 13 12 10 8 7
13 10 10 8 9 6 5 5 3 3 4 9 4 5 2 2 2 2 3 12 11 7 12 12 9 8 9 8 8 8 6 9 12 11 13 15 12 12 13 13 10 9 8
12 11 13 9 10 7 7 5 5 3 5 7 12 9 5 4 6 2 2 4 10 10 14 15 13 11 8 8 7 4 9 10 11 12 13 15 14 12 13 13 11 10 8
13 11 13 11 8 9 10 8 4 2 2 4 8 9 11 5 6 3 1 5 7 8 14 14 14 9 10 10 6 5 8 12 12 13 14 14 15 13 13 13 12 10 8
14 12 15 14 11 12 8 11 6 4 3 1 3 4 6 7 12 10 3 3 3 6 6 11 9 6 8 11 8 7 10 12 14 13 14 14 14 13 12 12 11 10 7
14 12 13 13 10 10 10 10 9 8 6 6 3 4 4 5 8 13 6 2 1 2 2 5 9 6 4 2 4 11 13 15 15 13 15 15 11 11 11 11 10 9 8
16 14 17 16 14 12 12 11 12 10 11 8 6 5 5 5 6 8 11 10 1 1 2 7 3 2 2 1 8 13 15 17 15 14 16 13 10 9 10 10 9 8 9
18 20 20 19 15 14 15 14 14 14 11 11 9 9 9 8 6 6 7 9 7 1 1 2 8 5 4 11 14 13 16 18 16 15 16 14 11 9 9 9 9 8 9
17 19 18 18 17 18 14 16 14 12 12 12 12 6 8 7 6 6 6 6 6 5 3 3 8 9 10 12 12 16 16 18 18 20 13 11 12 11 11 10 10 9 9
18 17 16 17 16 18 16 16 16 14 14 12 13 14 14 12 8 7 7 7 6 6 5 3 8 10 11 14 19 21 20 19 17 11 8 8 8 10 13 13 12 12 10
21 18 16 17 19 21 18 17 17 15 14 15 15 17 15 13 14 13 13 12 12 10 9 9 11 13 16 17 19 15 13 11 8 11 13 16 11 9 11 13 14 14 14
22 23 21 18 18 20 20 21 20 21 18 17 16 17 15 15 15 13 13 13 13 13 12 12 13 14 14 14 10 13 17 19 21 20 19 18 12 15 15 14 17 18 17
23 25 22 21 20 21 21 22 22 21 21 20 21 21 20 18 17 16 18 19 17 16 15 15 15 14 16 17 17 16 20 25 25 21 20 16 22 19 16 16 16 18 20
15 21 25 23 23 23 21 24 23 23 23 24 23 24 25 23 21 21 21 22 25 24 21 19 19 18 20 21 23 24 26 25 10 16 15 26 22 24 21 19 18 19 19
16 16 23 22 23 24 24 23 22 24 26 26 26 27 25 24 24 25 25 24 23 25 27 27 26 26 27 27 27 27 26 24 23 24 21 28 28 30 26 23 21 22 19
11 11 13 18 21 23 21 23 24 25 27 27 25 28 31 30 27 26 25 26 27 27 25 30 34 34 30 27 26 25 26 24 27 28 21 18 30 31 26 19 16 16 15
12 13 11 14 14 16 16 20 22 24 26 29 27 28 28 29 30 30 32 33 31 31 30 30 31 31 31 29 27 28 29 25 21 27 18 15 30 21 22 20 11 13 13
13 13 14 16 16 15 15 16 20 23 26 27 29 30 31 31 33 32 31 32 35 38 36 37 38 38 36 35 33 31 32 29 21 23 21 17 24 15 7 16 13 12 16

GFSMA_925_spd_087.txt.gz
Wind_Speed
10 9 6 4 4 3 2 2 6 7 5 5 10 8 7 4 3 3 3 3 2 1 1 1 2 2 3 3 4 5 5 6 6 6 6 7 7 7 6 5 6 5 4
4 4 2 0 0 2 3 5 5 4 6 9 11 8 7 5 3 2 1 1 0 1 1 2 3 3 4 4 4 5 5 6 6 7 7 8 8 7 7 6 6 7 5
2 4 1 1 1 3 2 2 4 5 5 7 7 7 6 4 3 1 2 2 2 1 2 2 2 3 3 4 4 5 6 7 7 8 9 10 10 9 8 7 7 7 7
4 2 3 4 3 1 2 2 2 5 5 5 4 3 5 6 5 4 4 4 3 3 3 3 3 4 4 4 4 6 7 8 9 11 11 12 13 13 12 10 9 9 8
5 5 4 2 2 1 2 2 1 3 4 2 3 4 5 6 7 8 8 6 5 4 4 4 5 5 5 6 6 7 8 10 11 13 14 15 15 15 15 13 12 11 10
5 4 5 6 4 5 4 2 1 3 4 4 6 9 8 8 10 10 9 8 7 5 5 4 5 5 6 7 9 10 12 13 13 14 14 15 15 15 14 13 12 12 12
7 3 9 7 2 2 3 1 1 2 6 3 6 8 5 7 11 13 12 11 10 6 6 6 7 6 6 8 10 12 14 15 15 13 14 15 14 13 13 13 11 9 10
8 4 6 9 4 3 4 3 4 5 3 3 3 4 3 2 3 8 10 15 12 10 10 9 8 8 8 9 11 13 14 12 12 11 13 16 14 13 14 13 11 9 6
9 7 7 7 6 6 6 3 3 5 3 5 4 1 2 2 3 3 4 9 12 12 12 8 7 7 8 10 11 12 11 9 11 11 14 17 14 13 15 14 12 10 8
9 9 7 7 6 4 5 3 1 3 3 8 2 2 2 1 1 3 3 5 10 13 8 9 8 9 9 11 12 11 10 10 11 13 14 17 17 15 15 14 13 11 9
10 9 10 7 9 4 4 5 4 0 3 5 7 2 4 3 5 2 2 4 6 9 11 11 13 14 13 13 13 10 9 11 12 13 15 16 18 16 15 14 13 11 9
11 11 13 12 9 8 7 7 5 3 1 3 6 9 9 5 6 2 0 4 5 5 8 11 13 12 9 12 12 10 13 12 14 13 14 16 16 17 15 14 13 11 9
13 14 16 16 12 9 9 9 7 4 2 2 3 5 6 7 9 6 1 2 2 4 5 7 9 8 7 7 11 9 14 14 15 13 14 15 15 14 15 14 12 10 9
14 12 13 17 14 10 10 10 10 8 6 5 4 3 4 5 8 12 7 3 2 3 3 4 6 6 5 5 4 9 14 14 16 15 14 16 14 11 12 12 11 10 10
15 15 14 15 15 13 12 12 12 10 10 10 8 6 3 4 5 6 9 9 1 1 2 5 4 4 4 4 8 13 14 16 16 15 17 14 13 12 10 11 11 10 10
17 15 15 17 17 15 14 13 12 11 11 10 10 8 8 5 4 5 4 6 5 2 1 3 6 5 8 9 10 13 15 16 15 15 16 12 11 11 12 11 11 10 9
16 17 17 19 19 17 15 15 13 12 12 13 12 11 7 6 5 5 3 3 3 4 1 3 6 7 8 11 13 15 15 13 13 12 11 10 12 12 13 13 13 12 12
16 18 16 17 17 17 17 16 15 15 14 14 12 12 14 11 10 7 7 6 6 6 5 6 9 10 11 13 14 11 11 13 11 10 14 15 16 15 13 15 14 15 15
18 16 15 17 17 17 17 17 15 15 16 15 15 15 15 13 14 14 13 12 11 9 10 11 12 15 17 16 13 10 10 12 14 19 20 16 12 12 15 16 15 17 17
19 18 19 19 16 18 18 19 18 16 17 18 17 17 15 14 15 15 14 12 11 11 11 13 14 16 16 14 13 13 16 18 22 23 22 16 12 19 16 15 14 14 16
10 15 16 19 19 18 18 18 20 20 20 21 20 20 20 20 18 16 16 16 16 16 17 16 16 17 19 18 16 16 19 23 26 22 19 14 22 21 20 21 18 15 14
10 14 16 17 18 21 21 20 21 22 22 23 24 23 22 21 23 21 20 21 20 20 23 21 23 22 25 24 24 23 23 23 9 14 16 27 25 26 25 23 20 18 16
8 10 12 10 15 19 20 21 21 21 22 23 23 23 23 24 24 23 24 24 25 25 25 24 26 28 30 30 27 27 26 24 24 25 22 31 30 31 31 21 16 16 15
9 12 13 13 13 11 17 18 20 21 23 24 25 23 24 25 22 24 26 28 27 27 27 26 27 29 28 28 30 30 28 28 30 31 23 17 31 32 32 19 19 13 12
9 9 13 14 15 17 13 12 14 16 20 23 24 25 25 27 27 26 26 28 30 33 32 32 32 32 32 31 30 31 30 29 23 25 16 16 30 29 28 28 15 13 12
10 11 11 12 16 15 14 12 11 13 15 18 21 23 23 24 25 26 26 28 33 36 35 35 36 37 36 35 34 32 33 29 23 20 22 18 24 19 9 23 15 14 29

GFSMA_925_spd_093.txt.gz
Wind_Speed
12 11 10 8 8 6 7 8 8 9 8 2 1 2 2 4 4 5 5 5 4 4 4 5 5 6 6 6 7 7 7 7 8 8 8 9 9 9 8 7 7 7 6
8 8 8 8 7 7 6 7 8 9 9 8 5 4 2 3 5 6 4 5 7 6 5 5 5 6 6 6 7 7 8 9 10 10 10 10 10 10 10 9 9 8 8
7 7 7 8 8 7 7 7 9 8 6 6 6 4 2 3 2 5 4 4 5 8 8 7 7 7 7 8 8 9 10 12 12 12 11 11 11 11 11 11 11 10 9
6 6 7 7 7 7 6 6 6 6 5 4 3 2 2 3 3 3 4 4 5 4 6 8 8 8 8 8 9 10 12 13 14 14 13 13 12 11 10 11 10 11 11
4 7 6 6 5 6 6 5 5 5 3 3 4 4 4 3 3 2 4 5 4 5 4 6 7 8 8 9 11 13 14 14 13 14 14 14 12 11 10 10 9 9 11
5 5 3 4 4 2 4 5 5 5 5 5 5 4 3 3 2 2 3 3 4 5 4 6 7 6 8 10 12 14 15 14 13 13 14 15 13 12 13 11 10 9 8
4 3 2 4 3 4 5 5 4 5 5 8 5 4 3 3 2 2 2 2 2 4 4 5 5 6 7 11 13 14 14 14 13 13 14 16 15 14 14 12 11 9 8
5 2 5 4 3 4 3 4 4 3 5 7 4 2 3 3 4 4 4 2 2 2 3 4 4 6 9 9 12 13 14 14 13 13 14 15 17 16 15 14 11 10 9
7 4 3 4 2 2 2 3 4 5 5 5 7 3 1 3 5 3 4 3 3 2 3 4 5 6 9 10 10 11 14 14 15 14 14 14 16 17 17 15 13 10 9
7 8 5 4 2 3 5 3 3 5 5 6 3 5 5 3 3 2 2 2 2 1 3 4 5 6 9 9 10 11 12 15 14 14 13 14 14 14 15 14 13 11 10
8 9 7 6 6 4 5 4 2 4 5 6 6 3 4 3 4 2 2 3 2 3 4 5 5 6 8 9 9 9 11 13 13 14 14 14 13 12 13 13 12 11 10
8 11 9 8 9 6 4 4 4 4 4 5 6 6 6 5 6 4 2 2 3 2 4 5 5 5 6 5 7 10 13 13 12 12 12 14 14 11 9 11 11 11 10
9 11 10 11 8 7 5 5 5 4 3 3 5 4 4 4 5 4 4 3 2 2 3 3 5 5 3 4 5 10 13 14 14 12 13 15 13 12 9 9 10 9 9
7 8 9 8 10 8 6 7 6 6 4 2 1 2 2 2 3 4 4 5 1 1 1 4 4 5 5 5 8 11 13 17 16 13 13 13 12 11 10 9 9 9 8
8 9 10 9 10 10 9 7 7 8 7 6 5 4 2 1 2 2 2 4 4 3 2 2 2 4 6 6 8 12 14 16 15 11 10 11 11 12 12 9 9 9 8
9 9 10 10 10 10 12 11 9 10 10 8 7 8 7 5 3 3 2 1 2 3 3 2 3 5 8 8 10 14 12 13 11 9 10 12 14 15 14 11 10 11 10
8 9 10 11 13 12 13 14 11 11 12 10 10 10 8 8 6 5 5 4 4 3 6 7 6 7 12 11 14 15 13 13 13 14 16 18 17 16 13 14 12 13 12
6 6 7 10 11 11 12 14 13 10 12 11 9 10 9 8 9 8 7 7 7 6 7 10 10 10 11 12 15 15 13 13 15 17 21 19 18 15 13 15 14 14 13
11 10 8 6 8 9 10 11 11 11 12 13 13 11 10 9 10 11 9 10 10 9 9 11 12 10 10 11 13 13 13 12 12 16 18 17 14 11 17 16 16 17 16
9 10 10 8 6 7 6 8 10 11 14 12 11 13 12 10 10 10 9 9 10 10 10 11 12 12 12 12 13 13 14 14 16 16 14 12 14 17 18 16 16 18 16
4 5 7 8 7 7 6 7 7 9 11 12 12 13 14 12 12 12 11 11 11 13 12 13 14 14 14 13 14 15 15 14 16 13 12 15 17 17 16 17 17 20 14
6 5 3 4 5 6 10 12 12 11 11 11 12 13 13 15 14 14 15 16 16 15 16 16 16 16 17 15 14 14 16 16 16 15 13 21 18 20 18 17 19 16 17
4 5 6 7 6 2 5 11 13 12 12 13 14 14 14 13 13 14 13 14 15 17 18 18 17 18 18 17 14 15 16 17 19 21 22 24 21 21 18 19 18 18 15
5 5 6 7 6 7 2 3 5 7 8 9 10 12 13 15 14 15 15 15 15 17 17 16 19 19 18 17 16 16 17 18 20 20 16 17 18 23 20 17 20 15 9
5 5 6 9 7 10 10 4 3 3 3 3 5 7 9 9 12 15 15 14 15 15 16 19 20 21 23 23 21 17 19 20 23 22 17 18 20 18 19 20 14 15 8
6 8 11 10 8 8 9 10 6 7 7 6 3 2 2 4 5 6 7 8 11 12 11 15 17 18 18 20 20 21 20 22 23 23 16 13 19 19 16 17 15 14 16

GFSMA_925_spd_096.txt.gz
Wind_Speed
11 10 8 7 6 6 7 7 8 8 7 8 7 8 8 9 8 8 7 7 6 5 4 4 4 5 6 6 6 7 7 8 8 9 9 9 9 9 8 8 7 6 6
8 7 7 6 6 6 6 7 7 8 7 8 7 7 7 8 9 8 8 7 8 7 6 6 6 7 7 6 7 7 8 9 10 10 11 11 11 10 10 10 9 9 8
7 6 5 5 5 5 5 6 6 7 8 8 7 7 6 6 7 6 7 7 5 9 8 8 8 8 7 8 8 9 9 10 10 11 11 11 11 11 11 11 11 10 11
6 6 6 6 4 4 5 6 6 8 7 7 6 5 5 5 5 5 5 5 6 6 6 8 8 8 8 9 10 11 12 11 11 11 11 11 11 10 11 10 9 9 11
5 7 6 5 3 3 4 4 6 4 5 4 3 4 4 4 4 6 5 4 4 5 5 4 7 9 9 9 10 11 12 12 12 12 12 12 11 11 11 11 10 8 9
5 5 5 5 3 3 5 5 4 4 3 3 4 6 4 3 4 4 4 5 5 3 3 3 3 5 10 10 11 12 12 12 12 12 13 14 12 12 13 12 10 8 7
4 4 5 4 2 3 4 3 2 3 5 4 3 6 6 5 5 4 3 4 5 4 4 4 4 5 5 9 11 11 13 13 12 12 13 13 14 14 13 12 11 9 8
6 5 7 5 4 6 3 3 2 1 4 6 4 2 4 7 6 4 3 3 4 5 5 4 3 3 5 6 8 11 12 12 13 12 12 12 13 14 14 14 11 10 9
7 5 6 5 4 3 4 2 3 3 5 4 6 5 3 3 3 3 3 4 4 5 4 3 2 3 4 5 8 8 11 12 12 12 12 12 12 13 14 13 12 10 9
8 7 6 6 5 5 4 3 2 2 4 4 3 5 6 4 3 6 5 4 5 4 3 0 2 3 4 5 6 8 11 12 12 12 12 13 12 10 11 11 11 10 9
7 9 7 6 5 6 5 4 2 2 2 3 4 3 3 3 3 3 3 6 5 3 2 1 2 2 3 4 5 7 11 12 12 12 12 13 12 10 8 9 9 9 8
8 9 9 8 7 5 5 4 4 3 1 2 3 3 5 5 6 2 1 2 1 3 1 1 1 2 3 4 3 8 11 13 14 13 12 14 12 10 8 7 7 7 7
6 9 10 8 8 6 5 4 5 3 2 1 2 2 2 3 4 4 3 4 1 2 1 2 1 2 4 4 5 10 11 16 16 14 12 13 11 9 9 7 7 6 6
7 6 10 9 10 7 6 5 6 7 6 4 2 2 2 1 2 4 5 7 3 5 4 4 0 2 3 4 6 10 11 15 16 14 11 11 11 10 10 9 8 8 6
6 8 10 10 10 11 9 7 8 8 7 8 5 5 6 4 3 2 3 5 7 5 2 6 5 2 5 5 8 11 13 14 13 12 11 12 13 13 11 9 10 9 9
6 6 9 9 9 10 10 8 8 9 9 9 9 7 8 9 7 6 5 5 5 8 7 1 6 5 7 10 9 13 14 16 16 13 14 17 16 16 10 10 10 11 11
7 9 9 11 10 10 10 10 8 7 9 10 9 9 10 10 11 10 9 8 9 9 11 14 7 9 10 11 14 14 15 16 17 11 19 19 16 15 10 10 10 10 11
8 6 6 9 10 10 11 11 11 9 10 10 9 10 11 12 11 12 12 11 12 10 12 13 15 15 12 13 13 14 15 16 15 15 17 15 15 12 8 12 11 11 12
8 8 7 6 8 9 9 10 11 10 10 10 9 10 10 11 12 13 12 14 14 14 13 16 16 17 15 15 14 16 15 13 14 13 15 13 13 12 14 14 12 13 14
11 12 11 10 8 6 6 7 9 9 9 10 11 10 10 11 11 11 13 12 13 13 16 16 18 18 17 14 15 16 16 15 15 18 15 15 16 15 16 17 16 14 15
6 9 11 10 10 9 9 9 9 9 10 11 12 11 12 12 14 14 13 12 12 14 15 17 16 16 16 13 13 17 17 17 18 15 16 15 19 18 17 16 15 10 17
1 2 6 7 9 7 13 14 12 10 10 11 12 11 11 13 15 16 17 18 17 16 16 16 18 17 16 16 15 15 18 19 17 16 17 23 21 21 20 18 13 20 19
4 4 2 3 4 0 8 9 11 10 12 12 11 11 11 12 10 12 13 15 17 17 19 21 20 20 20 18 17 18 18 20 21 24 25 24 20 20 19 20 17 21 19
2 2 5 5 4 5 2 3 3 5 9 9 10 9 10 9 11 12 12 14 16 17 17 18 18 20 21 19 17 18 21 23 24 23 22 23 22 22 22 19 20 19 17
4 5 4 6 4 4 3 3 3 1 2 2 2 6 7 7 10 12 10 13 16 17 17 17 19 20 22 24 24 21 22 24 25 26 23 24 24 24 21 23 21 15 14
5 6 5 4 5 4 3 2 2 2 2 1 1 4 6 5 7 7 6 7 10 12 13 17 20 21 21 22 20 19 18 21 24 25 22 19 23 21 23 24 16 17 22

GFSMA_925_spd_102.txt.gz
Wind_Speed
5 12 6 5 14 8 6 10 7 3 9 10 11 12 9 11 13 8 8 7 6 6 6 6 6 6 6 6 6 7 7 8 8 8 8 8 8 8 7 8 8 8 8
4 8 5 3 11 5 7 8 12 6 11 11 9 10 12 5 9 8 13 11 9 8 7 7 6 6 6 6 7 7 8 9 9 10 9 9 9 8 8 8 8 9 9
8 10 5 12 3 5 5 6 3 9 14 10 9 9 9 11 5 8 7 13 12 10 8 7 7 6 6 6 7 8 9 10 11 11 11 10 10 9 8 7 7 7 8
5 4 6 4 2 4 7 6 6 1 10 10 9 11 10 6 6 5 8 9 7 10 10 8 8 8 8 7 7 8 8 10 11 11 13 13 11 10 9 9 7 6 6
6 3 3 5 2 11 6 7 6 7 1 8 9 9 12 6 9 8 5 7 9 6 7 7 9 10 10 9 9 8 8 9 10 11 11 13 13 12 11 9 8 6 6
4 2 3 5 5 8 6 7 10 3 6 5 11 9 8 5 10 7 9 11 6 10 5 4 5 6 7 10 10 8 8 8 9 9 10 11 12 13 13 11 9 8 7
3 2 2 7 5 8 10 4 6 10 5 5 4 7 5 7 9 8 12 15 6 11 4 4 4 8 2 5 9 9 8 8 9 10 10 10 10 12 13 13 11 10 9
5 1 4 7 4 4 4 2 2 7 1 3 8 2 3 10 12 11 3 9 6 9 9 8 4 4 2 2 5 8 9 9 9 10 11 11 11 10 11 11 11 10 9
7 3 2 3 5 1 2 5 1 7 9 3 2 4 2 1 8 7 8 5 6 6 10 6 11 3 4 7 4 6 8 9 9 9 10 12 12 11 10 10 10 10 10
9 8 6 6 1 14 14 10 1 4 8 11 6 2 1 2 2 1 10 9 7 8 7 11 13 9 5 11 6 3 7 10 11 11 11 12 13 12 10 9 9 9 9
9 9 8 7 5 6 10 9 6 6 10 11 16 5 4 9 2 4 2 7 11 12 4 4 6 11 5 7 5 4 5 9 13 15 13 12 13 12 11 10 9 8 8
8 9 8 4 1 6 7 5 4 6 8 10 13 18 19 13 11 6 5 3 4 10 10 8 1 10 9 10 1 6 6 8 11 17 14 13 13 13 11 12 11 10 8
13 10 11 9 7 6 6 3 1 3 8 10 11 12 11 10 18 19 4 8 19 12 11 20 26 30 24 31 15 8 9 8 12 18 14 12 14 14 14 13 13 11 9
8 9 13 11 9 8 5 4 1 5 8 8 12 9 10 7 14 9 11 20 6 18 15 15 17 18 25 17 22 15 12 15 17 20 16 12 15 16 15 14 13 12 11
8 3 5 10 8 6 6 5 5 5 8 10 9 14 13 13 17 20 11 16 6 3 4 9 3 4 18 21 18 17 13 18 17 20 22 13 13 16 15 14 12 12 12
4 12 13 13 8 8 11 10 9 5 8 11 11 8 10 12 14 16 17 17 23 11 2 13 11 7 16 10 14 17 21 21 16 19 10 12 12 13 15 14 11 12 12
1 9 9 11 12 12 12 13 13 11 6 11 12 10 8 9 13 15 17 18 18 16 10 1 11 6 13 20 20 17 18 17 17 18 17 14 11 10 15 15 12 12 12
4 6 10 10 10 12 12 13 13 11 10 11 10 10 10 11 10 12 16 16 15 18 12 11 13 17 16 19 20 17 18 17 18 20 22 14 12 10 15 17 16 14 13
10 8 8 12 14 15 14 14 15 15 13 10 11 10 10 10 9 10 13 15 15 16 17 14 16 19 21 24 24 19 12 16 14 21 16 21 13 13 21 21 22 21 16
8 10 10 12 13 11 11 11 13 13 12 12 11 10 11 11 10 10 11 11 10 10 15 17 15 18 13 19 18 18 17 19 21 20 20 21 22 19 25 22 24 21 20
13 9 11 12 10 8 9 11 11 10 12 12 10 9 12 12 12 11 11 11 13 13 14 16 17 19 18 21 19 21 18 23 25 23 21 25 25 26 20 21 20 14 8
10 9 9 7 7 5 7 8 10 8 9 6 9 10 11 11 12 14 16 17 15 15 16 15 16 15 20 20 20 19 22 19 13 18 21 31 26 27 28 28 23 13 15
9 6 4 6 1 3 6 5 7 9 11 8 9 10 10 9 12 7 7 8 11 12 15 19 20 18 18 19 18 19 17 18 20 28 28 25 31 31 30 20 19 16 17
5 5 6 4 3 6 5 4 4 5 6 6 5 2 4 10 10 11 10 10 11 14 15 15 15 18 18 19 20 22 24 25 24 25 23 17 24 22 25 21 20 21 20
2 1 3 4 3 4 4 4 3 9 4 3 6 5 1 7 10 11 11 10 9 11 9 7 10 15 20 23 23 25 28 19 16 20 26 21 16 23 24 20 23 19 26
2 4 6 4 2 5 8 4 5 3 6 8 6 4 5 8 10 11 11 11 10 11 17 19 19 17 13 17 19 21 26 22 16 13 8 19 24 22 15 22 21 24 23

GFSMA_925_spd_105.txt.gz
Wind_Speed
9 14 10 12 9 3 4 3 4 6 2 11 10 10 14 9 9 9 9 9 8 8 7 6 5 4 3 3 3 4 4 4 4 4 4 5 5 6 6 8 9 9 10
15 12 7 5 10 4 9 6 10 8 7 8 13 12 9 7 7 12 12 12 9 8 7 7 5 4 4 4 4 4 5 5 5 5 5 5 5 5 5 6 7 9 10
8 12 7 5 7 7 10 7 5 8 9 10 10 13 11 8 5 7 12 12 10 9 8 7 6 5 5 5 5 5 5 6 6 7 8 7 6 6 6 5 5 5 8
10 3 5 0 4 8 3 13 14 9 13 11 12 13 12 8 9 7 6 9 9 8 8 6 5 4 4 4 5 5 4 6 7 7 8 9 9 9 8 7 5 4 4
4 1 3 3 3 6 2 3 4 10 16 14 12 15 10 10 10 10 6 8 4 4 7 7 4 4 4 5 4 4 5 5 6 7 8 9 11 11 10 9 7 6 5
5 5 7 1 1 3 5 9 10 7 6 5 5 11 13 9 10 10 11 10 6 5 6 2 5 1 2 5 6 5 5 5 6 7 7 8 9 10 10 10 9 8 7
2 1 2 2 3 4 7 7 10 15 5 5 6 3 8 9 13 12 10 12 10 8 8 3 5 7 3 2 5 6 7 7 8 9 9 9 9 8 9 9 9 8 8
2 3 5 4 2 6 5 6 9 15 7 5 4 3 2 4 10 13 16 13 12 10 13 9 3 4 2 4 2 4 8 9 10 10 11 11 10 9 8 8 8 8 8
4 3 1 3 1 1 3 4 9 11 14 13 7 1 1 3 3 7 7 10 9 10 11 11 7 5 6 4 1 4 6 11 12 13 12 12 12 11 9 7 8 8 7
6 3 1 2 3 3 3 5 9 11 13 18 13 6 3 4 2 3 3 7 6 3 13 5 9 13 8 4 5 10 12 12 14 17 16 14 13 12 10 8 7 7 7
5 6 3 3 4 4 1 6 7 11 10 14 16 12 5 15 29 17 3 10 13 24 18 16 12 11 13 17 14 12 21 16 15 17 17 15 15 14 12 10 10 8 7
8 8 8 8 7 6 4 1 7 6 8 10 13 13 11 4 15 10 3 2 8 13 17 14 14 19 17 13 22 19 21 15 20 18 20 18 16 16 15 12 11 9 8
9 8 7 7 8 3 6 2 8 5 6 9 11 11 12 11 7 10 5 3 5 6 7 11 15 11 12 8 13 17 19 17 16 20 22 22 20 17 16 13 11 9 8
7 9 11 9 7 6 3 5 6 4 6 8 4 8 10 11 12 8 3 2 3 4 6 15 14 10 14 13 8 12 18 16 18 23 20 22 16 16 15 12 10 9 7
10 10 13 13 10 11 10 8 5 5 6 10 8 7 7 5 6 8 6 0 2 3 3 5 8 10 12 10 11 10 13 19 21 20 21 15 12 14 13 13 10 8 8
7 12 11 10 10 10 9 9 6 5 6 8 8 5 11 8 11 13 14 13 9 3 2 7 8 10 10 13 12 15 18 21 21 20 20 21 15 13 13 12 12 10 10
2 8 9 8 9 10 9 11 13 11 10 9 9 9 10 9 9 11 11 11 10 13 3 6 7 9 11 16 19 19 19 21 23 26 27 24 17 14 15 15 15 14 12
5 4 4 5 9 7 10 11 11 11 7 11 11 10 10 9 11 9 9 9 9 9 9 10 10 10 17 22 20 19 17 15 15 17 17 16 19 16 18 19 21 22 19
8 6 4 6 7 10 13 13 14 14 13 12 10 11 10 9 9 8 11 11 9 9 9 9 11 14 14 20 17 18 16 14 14 20 21 18 19 16 17 22 23 23 20
4 9 8 8 7 7 10 13 13 12 12 12 9 10 10 8 9 9 9 9 9 11 12 13 15 17 14 16 14 17 21 21 22 21 19 21 26 21 22 23 26 25 20
8 6 7 4 3 5 12 12 9 5 9 10 8 9 8 5 6 10 10 10 10 12 12 13 15 17 18 20 21 21 21 22 24 18 22 28 26 29 28 25 24 20 21
9 7 8 5 4 4 6 6 5 6 6 5 5 9 7 8 7 9 11 10 11 10 11 11 13 13 15 16 19 20 19 20 8 19 28 29 26 25 25 25 24 21 11
3 3 5 3 1 4 6 3 3 4 6 5 4 5 5 8 10 9 5 3 2 3 6 9 12 14 16 17 18 20 21 22 20 28 25 20 24 21 22 23 21 21 14
8 10 8 4 2 2 3 5 5 2 3 3 4 3 2 3 6 6 4 3 2 2 3 5 7 10 12 15 19 22 23 23 23 19 19 12 16 23 27 28 21 20 25
9 9 9 7 4 6 4 3 4 8 6 8 7 5 5 5 7 7 7 6 5 3 6 7 8 9 12 15 17 16 17 14 15 17 11 14 19 25 23 20 15 23 20
10 15 12 5 3 4 6 3 3 5 7 8 4 3 4 7 8 8 9 10 10 11 14 13 9 13 18 14 21 18 15 13 13 6 13 21 23 20 11 6 26 21 28

GFSMA_925_spd_108.txt.gz
Wind_Speed
9 7 2 3 4 5 6 6 7 6 4 0 7 8 13 7 3 4 5 5 5 4 3 3 2 2 2 3 4 4 5 6 6 7 7 8 8 8 9 10 11 12 12
6 6 1 2 3 4 4 8 7 5 4 2 8 10 9 5 3 5 6 6 5 4 3 3 3 3 3 5 6 6 6 7 7 7 7 7 7 7 7 8 9 10 12
7 5 3 3 11 9 6 6 8 8 5 4 7 6 9 3 3 3 5 5 5 4 3 2 2 2 3 3 4 6 7 8 7 8 8 8 7 7 6 7 7 6 8
5 1 5 10 7 8 7 6 10 12 8 6 6 8 7 8 3 5 3 2 4 4 3 3 1 2 3 4 6 6 7 8 8 8 9 10 9 8 7 6 6 6 6
5 4 5 7 7 2 4 4 6 4 13 10 8 8 7 9 8 7 8 4 3 2 3 3 4 4 4 5 6 7 8 9 9 10 10 11 11 10 9 8 7 6 6
4 5 4 2 4 5 7 8 10 12 2 6 9 13 16 10 8 7 10 6 8 5 6 5 4 4 4 6 6 6 7 9 9 10 10 10 11 11 10 9 8 7 7
4 1 4 3 4 5 9 11 13 16 9 7 2 4 9 14 14 8 13 10 9 7 6 8 6 8 7 5 9 10 11 12 13 12 12 12 12 12 10 8 8 7 7
3 1 3 2 2 4 7 12 15 15 12 13 4 2 2 3 9 18 12 15 13 11 11 12 13 10 7 7 7 9 12 14 17 19 16 15 14 13 12 9 7 7 7
2 1 2 1 2 1 4 10 13 14 14 13 9 5 3 2 4 1 2 12 11 10 10 9 8 4 2 3 2 8 11 14 15 18 18 15 15 15 13 10 9 7 6
8 4 1 3 1 2 1 6 9 12 12 15 9 15 11 3 2 2 15 21 14 11 6 2 1 5 3 2 5 7 10 14 15 16 18 16 15 15 14 12 9 8 6
8 8 6 5 3 1 2 4 6 7 10 11 13 7 5 11 8 2 0 4 9 13 11 9 5 3 8 13 12 8 15 16 16 18 19 19 17 17 15 14 11 8 7
10 7 9 9 3 3 1 2 3 3 4 7 9 11 9 0 2 3 2 0 2 2 1 1 2 2 5 7 8 10 11 17 16 20 22 22 20 19 17 15 12 9 7
15 13 8 11 5 4 5 4 1 2 1 2 5 7 8 8 5 1 1 2 2 4 3 9 4 7 11 11 16 13 14 16 18 22 21 22 21 16 16 16 12 10 7
14 16 14 12 8 6 5 4 2 3 0 0 1 5 4 4 5 5 1 2 3 3 4 3 7 9 12 11 10 10 16 18 19 23 24 24 19 14 13 15 11 9 9
12 15 17 15 13 10 8 7 7 4 3 3 4 3 4 3 5 3 3 5 2 1 2 4 1 4 6 9 10 14 16 19 23 27 27 28 24 16 14 13 13 11 10
10 13 15 13 12 12 10 8 9 7 6 5 5 3 3 4 3 2 2 0 4 5 1 3 5 7 10 14 16 18 18 19 20 20 19 14 12 10 14 16 16 16 14
7 12 12 9 11 10 10 10 12 9 9 10 8 8 7 5 6 4 2 2 2 2 2 3 9 11 14 11 15 14 10 12 11 10 16 17 16 14 11 16 18 21 21
6 7 9 10 10 9 7 10 11 10 10 8 9 9 9 10 9 8 7 7 6 5 4 4 6 7 4 11 14 14 13 10 13 15 16 13 17 16 13 15 18 18 20
10 8 7 6 6 9 9 11 10 10 11 11 11 9 9 10 10 7 9 8 4 1 3 3 5 7 6 10 13 13 15 15 14 14 14 18 17 17 16 15 16 17 17
11 11 8 7 7 7 8 10 12 12 10 7 9 11 11 10 9 10 10 9 8 7 5 9 10 10 8 8 10 14 18 18 19 13 18 22 19 18 21 18 22 25 21
8 4 7 10 9 8 6 5 6 6 9 8 7 7 9 6 10 12 13 11 11 12 11 9 8 10 12 13 12 14 17 19 22 16 25 20 21 21 21 23 21 21 19
9 9 9 7 6 6 5 5 7 6 7 10 9 7 5 8 11 8 11 12 12 12 10 7 9 10 11 11 14 16 17 19 10 12 23 23 20 15 23 22 18 18 15
8 9 11 10 8 3 1 0 3 3 6 8 8 7 7 6 6 6 5 4 5 5 6 6 9 10 12 12 16 19 20 17 16 20 16 16 15 18 21 21 14 17 16
10 13 12 10 7 4 2 1 0 6 8 9 8 8 5 2 2 2 2 0 1 3 4 6 8 10 11 12 11 13 14 13 12 10 8 5 19 22 19 17 9 22 19
14 12 9 7 6 8 5 3 4 7 9 9 9 7 6 5 6 5 5 5 3 4 6 7 8 12 14 15 13 11 13 13 6 6 21 15 13 21 14 13 15 19 22
13 12 11 6 4 6 5 2 4 7 8 9 7 5 3 3 4 4 5 5 6 8 9 8 7 8 11 14 16 19 17 15 7 5 21 15 15 14 7 4 17 17 23

GFSMA_925_spd_111.txt.gz
Wind_Speed
7 5 6 3 3 4 4 3 7 7 7 6 3 6 8 6 2 3 3 4 3 2 0 1 2 2 3 4 5 6 7 7 9 9 10 11 12 12 13 12 13 13 15
4 4 4 4 4 4 5 4 5 6 8 8 3 5 3 2 3 2 3 3 3 2 0 0 0 1 2 3 4 5 5 7 7 8 9 11 12 12 12 12 11 10 11
3 4 3 3 5 7 5 5 3 6 8 4 2 4 4 2 1 2 2 3 3 2 1 1 2 3 5 5 6 7 7 7 7 8 8 9 11 12 12 12 11 11 10
6 3 3 3 11 9 7 4 4 5 2 1 1 2 5 6 3 2 1 1 2 1 1 1 3 4 5 6 6 7 9 10 11 11 10 10 10 11 12 11 10 9 9
7 6 4 5 5 4 8 5 8 3 5 4 4 4 7 5 7 6 5 4 4 3 2 3 4 5 6 8 10 11 12 12 12 13 14 14 12 11 11 12 12 10 10
7 6 5 4 6 5 7 6 9 8 3 4 9 11 10 8 7 7 8 10 9 9 9 9 9 10 8 8 7 8 10 11 13 14 14 15 14 13 12 11 12 11 11
5 5 3 5 6 6 9 11 11 10 10 4 2 1 5 14 12 10 9 12 15 15 14 14 12 12 7 7 6 5 7 10 12 16 17 16 16 14 13 11 11 10 10
5 3 5 7 5 6 8 10 11 10 9 8 3 3 3 3 5 8 13 11 14 14 14 13 11 8 6 6 6 4 5 7 11 15 17 18 17 16 14 12 11 10 10
5 2 2 2 2 4 7 9 10 10 10 13 7 3 1 2 2 9 2 9 14 15 14 10 8 6 7 9 8 7 6 9 12 16 18 19 19 17 15 13 11 11 10
7 4 1 2 1 3 5 7 7 9 10 7 8 8 4 1 2 1 7 8 4 2 3 4 6 11 9 9 7 8 8 14 15 18 22 22 22 19 16 14 12 12 10
10 8 6 7 4 5 6 5 6 5 7 9 6 1 2 6 6 2 1 3 2 1 2 1 4 6 9 12 14 11 12 12 15 19 22 20 22 23 16 14 13 11 10
10 12 11 9 6 5 5 6 4 2 3 6 7 7 5 1 2 3 2 3 5 5 4 8 10 8 9 11 12 15 13 12 13 16 21 21 23 24 14 11 14 11 9
17 13 11 12 9 5 8 5 4 4 1 1 3 3 5 6 3 2 1 1 2 4 4 9 10 10 11 12 12 15 14 13 16 22 23 21 24 20 12 10 12 11 9
18 16 14 12 13 8 6 9 6 5 4 3 1 2 0 3 3 4 2 2 2 3 4 5 7 5 5 12 12 14 15 14 16 20 19 19 19 13 9 10 11 13 11
13 14 15 15 14 11 10 8 6 4 3 3 2 2 1 2 1 2 2 3 1 1 3 4 4 6 9 12 13 13 15 14 15 11 15 19 18 10 6 8 11 14 14
12 12 15 15 13 13 11 10 8 6 4 2 2 3 3 1 2 2 3 5 6 3 2 3 5 10 10 10 12 13 12 11 7 9 15 15 16 16 12 10 11 13 16
9 11 13 15 13 13 13 12 11 10 9 6 6 5 6 5 5 4 4 3 4 5 4 6 9 9 8 5 9 10 12 13 14 13 15 14 16 14 12 11 11 13 14
9 7 11 13 10 11 9 11 11 12 11 9 7 8 8 7 7 6 6 5 7 8 9 11 10 7 5 7 9 10 12 12 12 12 9 14 12 13 11 9 12 12 11
10 7 6 7 7 9 11 12 12 11 11 10 9 9 6 6 7 6 5 7 7 7 7 7 8 8 11 9 11 10 12 12 11 9 10 11 8 11 15 12 18 19 17
13 12 11 10 9 8 10 11 12 14 14 12 10 10 9 8 7 7 9 10 10 10 8 8 10 10 8 9 10 12 17 17 18 10 13 11 11 10 16 16 16 16 15
6 6 8 11 12 11 10 9 9 10 11 12 9 7 7 6 6 9 10 10 12 12 10 9 8 6 8 8 9 12 14 18 18 7 18 18 14 14 18 19 16 16 19
7 10 10 9 8 8 8 9 10 9 10 12 11 8 7 5 6 8 10 12 12 13 10 7 4 7 10 10 9 12 13 12 6 6 18 15 16 18 19 18 20 18 20
11 13 11 10 9 7 7 6 6 7 9 10 11 13 11 7 6 6 5 5 5 3 3 3 3 4 8 10 13 14 10 8 7 13 12 7 18 18 18 15 16 17 18
12 11 11 9 6 3 3 3 6 6 9 11 10 12 8 5 2 2 2 3 2 4 4 5 4 4 5 4 6 5 3 3 3 12 17 2 12 20 16 12 16 16 18
14 14 12 9 5 5 4 2 3 5 7 6 6 6 4 4 4 2 2 3 5 6 6 8 11 9 11 11 10 5 8 4 2 5 19 14 13 17 11 8 16 16 21
13 13 12 8 6 4 4 2 2 4 8 8 8 6 5 2 2 2 3 2 2 3 6 10 10 10 10 13 15 14 10 8 4 5 20 9 15 15 8 3 20 20 23

GFSMA_925_spd_114.txt.gz
Wind_Speed
3 2 7 6 5 4 3 3 4 6 6 3 4 3 2 2 2 2 3 3 3 3 2 2 3 3 5 5 6 7 8 9 10 9 9 9 9 9 8 8 8 10 14
2 2 5 5 5 4 3 3 4 5 8 5 3 5 4 3 4 3 3 3 4 3 3 2 2 3 4 6 6 7 8 10 9 9 9 10 10 10 10 9 8 8 9
3 3 2 4 7 6 4 4 2 3 4 4 5 2 4 3 3 4 4 3 3 2 1 2 3 4 6 7 8 7 8 8 8 9 10 11 12 12 11 11 10 9 8
4 2 3 7 4 7 5 4 1 1 2 2 3 1 1 1 3 4 3 3 2 1 2 4 5 6 6 5 6 6 6 7 8 9 10 11 11 13 13 11 9 9 9
5 5 5 4 6 7 7 6 5 4 3 2 2 1 2 3 3 4 4 6 6 7 7 6 7 7 7 6 5 5 5 7 8 9 10 11 11 12 13 12 10 9 9
5 4 4 4 5 5 6 5 8 7 4 3 5 3 4 3 4 4 6 7 9 10 11 10 10 9 6 6 5 5 5 6 8 11 13 13 12 13 12 12 11 9 9
4 3 4 3 4 5 8 7 8 8 7 2 1 3 1 3 7 8 9 8 8 10 10 10 11 10 9 8 6 5 6 7 10 12 14 15 15 14 14 12 10 9 8
5 4 4 7 5 5 6 8 8 5 7 4 3 3 3 2 4 7 8 10 11 10 10 12 13 11 9 10 9 6 6 9 12 15 17 15 15 15 13 13 10 8 8
5 5 4 4 5 4 5 8 9 7 6 9 5 3 1 1 2 6 4 4 6 8 9 11 9 9 10 10 7 7 7 7 13 14 18 18 17 15 14 12 10 8 8
9 6 4 5 4 5 5 6 7 7 7 5 6 8 4 2 2 2 2 3 3 3 5 6 6 7 8 7 7 8 13 14 14 14 17 17 17 20 14 10 11 9 8
9 7 6 6 5 4 5 4 5 6 6 5 2 2 1 3 3 2 2 5 5 5 6 7 8 7 7 9 9 9 12 11 12 14 18 16 16 16 14 10 11 9 8
10 10 9 7 5 4 4 4 3 4 4 4 5 5 3 2 1 2 2 2 5 8 11 10 11 10 6 11 10 10 12 10 11 14 15 15 15 12 10 11 11 10 8
13 12 10 11 8 4 6 5 5 4 3 3 2 2 3 4 3 2 2 1 2 4 5 5 8 6 6 9 9 11 12 12 11 13 13 15 15 11 9 7 9 10 9
15 15 13 11 12 9 7 10 7 6 6 6 4 2 3 2 2 2 1 2 1 2 4 4 4 7 8 11 12 13 13 13 11 8 11 16 18 13 9 6 6 8 9
12 14 16 15 13 12 9 8 8 6 6 7 6 4 3 5 3 2 2 2 2 1 2 4 3 5 7 9 10 12 13 10 6 7 12 15 16 13 10 7 9 9 11
12 12 12 16 15 15 12 12 11 9 8 6 6 5 7 5 4 3 4 4 5 5 2 3 5 12 10 4 6 8 10 9 8 10 12 16 17 15 14 11 10 10 12
8 10 12 12 16 14 14 14 13 12 12 9 8 7 9 8 8 7 7 7 7 7 6 7 10 13 12 6 8 9 12 13 12 10 10 12 12 12 11 11 10 11 12
9 9 10 11 14 11 12 14 14 14 15 14 13 12 11 9 9 10 10 10 8 8 8 8 11 12 12 11 12 11 12 11 10 8 9 12 10 12 13 14 15 15 13
12 11 9 11 14 13 12 12 14 14 15 16 15 14 12 10 10 10 10 9 9 8 8 7 8 11 14 11 10 9 10 10 11 9 11 9 8 12 14 14 15 18 17
16 16 13 11 12 11 12 13 13 14 16 17 16 16 15 13 10 7 7 9 8 8 9 10 10 11 9 8 9 8 13 13 14 5 11 11 10 15 15 17 15 17 17
15 13 14 15 14 13 12 10 10 11 12 13 14 12 14 11 7 6 7 7 7 7 7 9 9 6 6 7 7 9 12 15 10 7 13 9 12 14 13 16 16 18 17
20 15 9 8 11 11 12 10 11 10 8 9 11 12 10 11 7 7 8 9 9 9 10 7 6 3 5 7 7 12 11 5 4 8 11 7 13 19 18 19 17 16 14
15 13 12 14 12 10 10 9 6 4 4 7 10 12 9 6 6 5 6 5 5 4 1 3 2 2 4 5 8 9 6 3 2 12 7 3 12 15 13 18 18 18 17
17 17 15 10 9 6 6 5 3 5 4 4 5 8 12 7 5 6 5 1 2 3 2 2 1 2 2 5 4 4 3 2 5 8 14 4 11 12 6 12 17 17 17
14 12 9 7 5 3 3 3 5 6 7 9 7 6 7 6 5 4 2 2 5 6 6 7 9 8 5 4 3 0 1 1 2 3 15 6 10 12 5 7 16 20 20
13 13 11 8 5 3 3 2 1 2 4 6 6 5 5 5 5 4 3 3 4 5 8 9 9 7 7 7 6 7 5 3 2 2 14 7 10 10 5 1 14 15 18

GFSMA_925_spd_117.txt.gz
Wind_Speed
4 7 7 6 5 4 3 2 3 6 8 7 8 6 6 5 5 4 3 5 5 6 5 4 5 5 6 6 6 6 7 7 8 8 8 8 9 9 10 9 8 8 10
2 3 5 4 4 3 2 3 3 6 7 6 8 9 7 6 7 6 4 3 4 4 4 4 4 4 5 5 6 6 7 8 8 8 8 9 9 9 8 8 9 7 7
1 1 2 3 4 3 2 2 2 4 3 6 8 7 7 7 6 6 5 3 3 4 4 3 3 3 4 5 5 6 7 8 9 8 9 9 10 9 9 8 9 8 6
3 3 2 3 2 2 2 2 1 2 3 5 6 5 4 4 4 5 4 3 3 2 3 4 4 5 5 6 6 7 7 8 10 10 10 9 10 10 9 8 8 9 7
3 3 5 1 3 4 3 3 3 4 4 4 4 3 3 2 1 0 3 4 4 4 5 7 7 7 7 6 7 7 7 8 9 10 11 11 11 11 10 9 7 8 8
4 2 3 3 4 4 3 4 5 4 3 3 3 2 1 1 0 1 2 3 3 5 6 8 8 8 9 9 8 8 7 7 8 10 12 12 11 11 11 10 8 7 7
4 3 3 3 3 4 5 3 4 4 4 2 3 2 1 1 2 2 4 3 4 4 6 8 10 8 7 9 8 7 6 6 8 10 13 13 10 9 9 10 8 7 7
4 2 3 5 3 2 3 3 2 1 3 2 1 1 0 2 1 1 4 5 7 8 7 9 9 7 8 9 8 7 6 6 7 14 15 12 10 9 8 8 8 7 6
5 3 3 4 4 3 1 2 2 2 2 4 2 0 2 1 1 1 2 3 4 4 4 6 7 6 8 8 6 5 8 10 15 14 13 14 10 10 8 7 8 7 6
7 5 5 4 5 5 4 2 1 1 2 2 2 3 3 1 1 1 2 2 3 3 4 3 5 5 7 6 7 7 10 10 11 11 15 14 12 10 7 7 8 7 6
10 8 7 7 6 5 6 4 2 1 1 2 1 2 0 2 2 3 4 3 4 5 5 5 5 6 6 8 8 7 9 11 7 10 14 13 13 6 5 9 9 8 6
10 11 9 8 7 6 7 6 5 3 1 2 3 1 0 2 2 1 2 3 6 4 6 5 5 5 4 6 6 7 8 8 6 7 9 11 7 4 2 4 6 7 7
13 13 11 12 11 8 8 9 7 7 4 3 2 1 1 1 2 1 2 1 3 4 4 3 4 5 3 5 7 10 10 9 6 4 6 11 13 11 8 5 6 6 7
11 13 14 12 13 12 8 9 7 6 7 5 5 3 3 2 1 2 2 2 3 2 3 3 2 3 5 7 7 9 9 9 4 5 8 10 12 12 10 9 8 8 9
9 13 15 15 13 12 11 8 8 9 7 7 7 6 5 5 5 4 4 3 5 5 4 2 3 3 6 6 5 6 7 6 6 6 7 11 13 13 12 10 9 9 10
10 10 11 13 13 13 13 12 10 10 9 8 7 8 8 7 7 6 7 6 6 8 6 4 6 8 9 6 6 6 7 7 8 7 9 9 9 11 11 11 11 12 13
6 9 9 11 13 14 15 14 13 12 12 10 9 9 9 10 10 9 8 9 9 8 10 11 9 9 10 7 7 8 7 7 8 8 10 9 8 9 9 10 11 14 14
6 6 7 10 11 13 14 14 13 13 14 15 15 13 13 11 13 12 11 11 10 9 10 11 10 8 7 8 9 9 8 7 6 8 7 6 9 10 10 12 13 14 13
7 7 8 9 10 11 10 11 13 14 15 16 15 14 13 12 15 13 13 12 10 9 9 10 10 7 9 7 6 6 6 6 6 5 9 9 13 14 12 12 12 13 13
5 7 9 9 9 9 11 12 14 14 14 15 18 16 14 13 14 11 12 11 11 12 11 10 10 9 7 6 5 6 8 6 5 3 6 9 11 11 13 12 13 12 13
6 4 4 8 11 11 12 12 10 10 11 11 12 15 11 16 18 11 8 9 10 10 11 9 9 7 7 6 7 7 8 8 2 6 3 6 9 10 14 16 15 13 14
9 6 7 8 5 8 14 14 13 12 11 9 8 6 7 6 7 8 8 7 8 11 10 8 6 6 5 5 5 7 8 7 2 8 4 8 8 12 13 15 14 14 15
14 14 10 10 10 9 11 10 10 9 8 8 7 8 8 5 4 5 4 4 5 5 4 5 4 4 3 3 5 4 3 3 1 7 3 5 6 8 9 12 12 14 15
12 10 12 13 13 13 14 10 7 6 5 3 2 5 8 7 7 7 6 3 2 3 2 0 2 2 0 3 3 3 0 0 2 5 8 1 5 2 5 6 12 14 14
13 15 16 13 11 9 9 6 7 7 9 8 7 8 9 10 9 6 4 4 3 3 3 2 3 4 3 3 3 2 2 4 4 1 9 4 5 6 3 0 8 17 16
17 16 14 11 8 5 5 3 2 2 2 2 3 3 5 5 6 5 4 5 7 7 7 5 4 4 3 3 3 3 4 4 3 3 8 4 4 5 2 2 6 10 11

GFSMA_925_spd_120.txt.gz
Wind_Speed
5 5 4 4 4 4 3 2 4 6 7 9 10 9 9 8 7 8 7 5 5 5 4 3 2 3 4 5 6 8 9 10 11 11 11 11 10 9 9 8 10 10 12
4 4 5 4 3 3 2 3 3 5 7 11 10 10 10 8 7 7 7 5 5 5 4 2 2 3 5 6 6 8 9 11 11 11 12 12 12 11 9 7 8 8 10
3 3 5 4 3 1 2 2 2 4 8 9 9 8 9 7 7 6 6 6 3 5 4 4 4 4 5 6 7 7 8 9 11 12 12 13 12 13 12 9 8 7 8
3 3 4 4 2 1 2 3 4 5 6 7 8 6 6 6 5 5 5 4 3 1 2 5 5 6 6 7 7 8 8 9 11 12 13 13 13 12 12 9 8 7 8
4 3 5 2 2 2 3 3 7 5 7 6 8 6 4 5 4 5 3 2 2 2 2 4 7 7 7 7 7 7 7 8 8 10 13 15 15 13 12 11 7 7 7
4 4 3 2 2 3 3 5 5 4 3 3 3 6 3 4 4 3 3 3 3 4 3 3 5 6 10 9 8 7 6 6 7 9 14 17 15 14 13 11 8 6 6
4 4 4 2 2 3 3 3 4 4 4 3 5 5 5 5 6 5 4 4 3 5 4 4 6 6 7 10 9 7 6 6 8 8 15 14 14 14 13 10 9 6 6
4 3 3 3 2 2 2 2 1 1 2 1 3 2 4 7 7 7 6 5 6 7 7 6 6 6 5 6 7 9 8 8 10 14 12 12 14 15 13 8 8 6 6
6 4 3 4 3 2 1 2 2 3 1 1 1 5 3 3 3 6 7 7 5 6 7 6 5 4 4 4 4 6 8 10 12 9 10 14 13 13 10 6 7 6 5
7 5 4 4 4 3 2 1 2 2 3 2 2 1 3 5 4 3 7 5 4 5 5 6 5 3 4 3 5 5 9 11 12 9 12 15 14 12 5 4 5 5 5
7 8 6 5 4 4 4 3 3 2 3 5 5 2 3 4 2 6 8 1 4 4 6 7 7 6 5 4 4 4 8 9 6 6 10 13 13 7 4 2 3 4 5
9 10 8 7 6 6 5 5 4 4 3 2 3 3 5 6 5 6 6 5 5 5 5 5 4 4 2 3 4 7 8 9 7 7 6 10 11 7 5 6 5 6 6
10 8 9 9 9 7 6 6 6 6 6 5 5 5 4 4 4 6 7 5 7 5 3 2 2 2 2 4 4 8 9 8 5 3 4 8 10 9 7 5 7 9 9
13 12 12 12 11 10 7 7 8 8 9 8 7 6 7 6 5 6 7 8 8 8 5 5 4 4 6 6 5 8 5 10 6 6 7 10 12 12 11 9 8 10 11
13 13 13 14 13 12 12 10 9 10 9 8 8 9 10 10 9 10 9 8 10 8 8 1 7 1 8 11 8 8 7 9 8 7 9 11 12 12 12 11 10 10 11
9 9 10 12 15 14 14 13 10 9 10 10 11 9 9 11 10 10 10 10 9 11 8 15 7 10 11 13 8 7 10 9 6 10 8 8 9 9 9 10 11 14 14
9 9 9 10 11 11 12 13 12 11 11 11 11 9 11 10 12 12 11 11 12 12 12 13 12 6 8 7 9 9 9 9 1 8 8 5 5 5 6 8 10 12 13
9 8 8 8 8 11 12 13 13 13 13 14 14 13 13 13 12 12 13 12 12 11 13 12 13 11 6 9 8 7 6 7 5 5 5 4 4 3 5 8 11 12 13
9 9 8 8 8 10 11 12 11 12 13 14 15 15 15 14 15 14 11 13 12 13 9 11 13 11 7 9 6 5 4 4 5 1 5 3 7 9 10 11 13 14 15
10 10 9 8 8 8 9 10 11 11 12 13 14 14 15 14 14 13 12 11 11 12 11 13 12 12 13 4 7 6 6 2 3 2 9 5 6 8 10 12 14 15 16
10 9 8 8 9 9 7 6 6 8 10 11 12 12 13 16 17 15 12 11 11 11 10 12 10 11 12 11 6 10 8 6 4 1 3 12 9 8 10 13 13 13 13
11 11 10 8 6 7 9 6 9 8 8 9 9 8 8 9 9 7 8 8 9 8 10 10 12 9 9 8 7 8 8 6 0 2 4 4 7 6 8 11 10 10 11
12 14 12 9 7 6 6 5 6 4 7 7 8 8 8 6 5 3 5 6 6 6 7 8 7 9 5 3 6 6 4 5 2 3 2 4 5 9 7 8 8 9 10
14 14 12 11 8 10 9 8 6 6 4 5 3 4 8 7 6 7 6 5 4 5 5 1 1 4 3 3 4 5 5 4 2 1 4 4 2 6 7 3 7 12 12
15 12 8 7 7 7 6 6 4 2 6 11 10 8 7 8 9 9 6 6 3 2 3 3 2 1 2 3 4 6 7 8 8 4 6 3 0 4 7 7 4 11 14
15 11 10 8 4 1 3 4 3 4 7 6 4 4 6 6 5 6 5 6 7 7 6 3 0 2 3 5 6 5 6 10 7 6 4 3 3 4 6 6 1 5 7

GFSMA_925_spd_123.txt.gz
Wind_Speed
6 6 5 3 3 5 6 4 6 4 6 7 7 7 7 8 8 11 8 7 6 5 4 2 1 2 4 5 6 7 9 10 12 12 13 13 13 12 12 12 10 9 9
4 6 6 8 6 3 5 5 1 2 9 7 7 7 8 8 8 7 8 6 5 3 3 2 2 3 4 5 6 7 9 11 12 12 13 13 13 12 12 11 10 9 9
4 6 5 4 6 3 3 3 3 3 7 7 7 7 7 7 8 7 5 7 4 6 3 3 3 3 4 5 6 7 9 10 11 12 13 13 12 12 12 12 9 9 8
6 4 8 6 5 5 5 5 6 4 6 7 7 7 6 6 6 6 4 3 3 6 2 3 4 4 4 5 6 6 7 8 8 10 13 15 15 13 11 11 11 8 7
4 2 5 5 5 6 8 6 5 6 4 6 8 5 5 7 6 8 4 4 4 3 1 3 5 5 5 7 7 7 7 8 8 10 13 17 16 15 13 11 9 8 7
5 5 5 3 8 6 6 8 5 2 4 5 5 8 6 6 6 7 10 8 6 4 6 3 7 11 6 8 9 10 9 9 9 10 12 18 16 16 15 12 9 7 6
5 5 6 4 2 3 7 5 5 6 5 2 3 6 7 8 10 9 9 8 8 7 3 6 6 6 8 8 9 9 10 11 10 12 17 16 16 18 16 12 8 6 5
5 5 2 5 5 5 3 2 5 11 3 2 14 6 7 11 17 15 11 7 6 6 6 6 3 7 7 8 6 13 11 11 12 15 15 14 17 18 16 10 7 6 6
6 4 5 5 1 5 10 1 5 7 7 6 7 10 6 4 13 13 10 9 3 8 6 5 7 5 6 8 8 7 9 13 14 13 14 16 18 17 14 8 6 5 5
8 7 5 5 5 6 3 2 3 9 12 12 4 8 6 3 8 4 12 37 10 10 7 5 7 1 2 7 7 7 10 11 12 10 11 15 18 13 8 7 5 5 5
7 8 7 5 5 5 5 5 3 5 6 9 11 10 6 13 11 11 5 18 30 10 4 2 6 7 3 4 4 6 12 13 12 10 11 13 16 13 9 8 7 6 6
11 10 8 7 6 6 5 6 5 5 6 6 9 7 12 13 14 14 10 12 8 8 8 2 3 6 4 3 3 6 10 13 12 9 8 11 14 15 14 12 11 10 9
11 17 12 8 9 8 6 6 6 7 5 7 6 11 9 9 8 11 11 13 10 12 7 12 5 14 1 4 4 6 7 9 10 7 8 11 14 15 14 13 11 11 12
9 6 7 10 10 9 9 8 9 8 11 9 9 9 12 15 8 10 11 14 9 16 9 9 1 2 5 2 6 7 6 9 9 8 9 10 12 13 13 12 12 11 12
10 10 12 12 13 12 13 11 11 10 9 7 9 10 10 12 16 9 11 10 10 8 9 4 6 4 6 7 11 7 7 5 10 6 8 9 9 11 11 11 12 13 13
12 9 11 13 14 14 13 13 13 15 11 12 13 11 10 12 14 10 12 12 12 12 8 14 16 4 6 9 11 7 12 12 10 5 5 7 7 7 8 9 11 14 15
11 12 13 14 14 14 15 14 16 14 9 10 12 11 7 10 12 14 14 13 12 12 12 16 14 9 7 4 8 9 10 11 7 5 6 6 6 6 7 9 10 10 11
13 13 12 12 11 12 13 14 15 16 13 14 13 14 13 13 12 10 13 13 13 13 13 14 16 18 12 6 5 6 9 5 12 5 4 4 4 6 7 8 10 11 12
11 11 10 11 12 10 11 12 12 13 13 14 14 14 15 15 14 14 12 11 12 6 7 11 15 20 14 17 5 9 6 7 5 5 4 4 4 4 6 9 12 14 14
12 12 11 11 10 10 10 11 12 12 12 13 13 11 13 15 15 12 13 11 11 9 8 15 19 20 19 13 10 14 12 14 12 9 5 7 5 5 6 9 12 14 15
14 13 13 13 12 11 12 12 10 11 11 11 10 10 12 15 17 18 14 14 14 11 11 15 10 11 14 17 14 11 14 11 8 11 13 9 7 9 8 8 11 12 11
15 13 12 10 10 11 10 10 10 9 10 10 9 9 9 10 10 11 10 13 9 8 11 11 13 10 9 8 10 12 13 11 3 3 4 9 13 9 7 7 9 10 11
15 13 11 12 9 9 8 7 7 5 9 8 8 8 8 7 4 2 6 6 6 6 7 7 7 7 5 3 4 8 6 7 5 1 1 3 14 10 6 6 8 9 10
15 13 13 13 10 11 9 9 7 5 5 4 5 2 3 4 6 3 3 3 2 5 6 3 3 3 3 3 3 7 9 8 5 3 3 4 11 13 9 4 6 10 13
10 11 13 13 12 9 7 5 4 5 5 7 7 7 3 3 6 7 8 6 4 3 5 5 4 3 3 4 6 7 6 11 12 7 3 4 3 3 10 9 3 6 8
16 18 18 14 10 6 5 3 3 3 7 3 4 4 3 8 9 8 6 7 6 6 3 0 2 3 3 5 8 5 6 8 11 7 3 4 1 1 5 10 6 4 4

GFSMA_925_spd_129.txt.gz
Wind_Speed
8 6 6 6 6 9 14 5 5 6 1 5 9 9 16 13 7 8 9 9 7 6 5 4 3 3 3 3 1 1 2 3 5 7 8 9 8 8 8 7 5 4 4
14 8 8 8 8 2 8 5 3 4 3 4 3 4 10 6 6 7 8 7 7 6 5 4 4 4 5 3 1 1 2 3 5 7 9 11 12 10 9 8 6 4 5
6 6 4 7 3 2 2 3 5 5 8 9 5 11 9 7 3 6 4 6 5 5 5 4 4 4 4 4 3 2 3 4 5 6 8 11 13 11 10 9 7 5 4
8 2 7 2 1 2 3 5 8 10 13 8 12 10 9 12 7 8 7 8 6 6 4 5 5 5 6 8 6 5 5 5 6 5 7 9 14 10 10 9 7 6 4
3 2 2 3 3 7 7 10 8 11 16 14 14 13 14 13 6 8 7 8 11 12 13 12 14 9 8 9 10 7 7 6 6 5 6 10 10 11 10 7 6 6 4
4 4 1 4 4 6 6 2 12 8 10 9 10 15 17 14 10 8 4 13 11 3 22 15 27 21 24 22 13 9 8 7 6 6 7 9 10 11 10 6 4 4 3
7 4 2 1 2 6 8 7 12 12 7 20 13 5 4 10 8 6 3 10 13 16 21 11 25 27 22 15 21 6 5 6 6 7 8 7 10 11 8 6 4 4 3
7 4 3 2 5 4 9 5 6 6 4 13 10 5 4 6 3 4 6 7 15 4 6 4 24 33 24 23 12 3 5 8 8 8 6 8 11 10 6 5 5 3 3
6 5 4 5 10 7 6 9 9 2 6 5 5 5 2 4 7 8 10 10 12 9 4 16 10 16 23 22 5 0 6 8 9 9 9 9 12 11 6 4 4 2 2
8 5 7 5 6 3 8 3 4 4 2 5 4 9 6 3 2 5 25 14 9 9 11 10 4 10 14 13 8 2 3 6 9 8 7 8 10 11 9 5 4 3 3
10 9 9 11 10 8 1 2 3 2 1 8 6 7 4 6 7 6 4 12 7 9 9 8 3 3 10 8 14 2 1 5 8 8 7 8 10 12 11 9 6 5 5
15 13 8 12 9 9 8 7 3 5 5 5 7 9 8 3 5 8 6 10 6 8 14 16 4 4 8 11 8 3 1 3 5 8 6 8 10 11 11 10 8 6 7
15 16 12 14 11 10 10 6 5 5 7 6 7 9 9 10 10 9 8 5 6 7 10 13 17 11 1 9 4 1 2 1 3 7 6 7 9 9 10 11 11 11 8
16 16 13 16 12 9 8 9 7 7 7 7 11 11 13 12 11 11 13 9 3 1 7 8 4 5 5 9 1 2 3 2 3 5 6 8 9 9 10 10 11 12 12
11 14 14 15 12 11 10 10 10 11 11 9 9 8 10 14 15 8 14 9 3 2 3 11 5 6 4 2 1 6 8 3 5 3 5 8 7 7 8 9 10 10 11
9 13 11 12 14 13 13 13 13 12 12 13 11 9 6 9 12 11 9 10 7 10 2 4 12 6 4 9 1 5 5 5 4 3 4 7 6 6 7 9 10 11 13
10 11 12 12 12 12 13 14 13 13 15 13 11 15 11 9 10 11 10 7 9 6 1 2 1 5 9 10 6 6 6 2 3 1 3 5 6 6 7 9 10 12 14
13 14 13 11 11 12 14 13 13 14 14 11 12 13 13 10 11 9 9 7 5 2 3 5 5 5 8 8 6 4 7 6 3 2 2 4 6 5 5 8 10 12 14
16 14 13 13 11 10 10 10 12 12 12 11 12 12 11 11 13 13 13 13 10 7 6 5 5 6 6 7 9 6 4 2 1 2 2 1 2 3 5 7 10 11 12
17 13 11 11 10 10 9 8 7 8 8 9 8 9 11 12 12 12 12 12 12 11 7 6 7 7 5 5 10 6 5 6 6 8 8 1 3 4 4 6 8 9 10
16 12 11 10 9 9 8 7 7 9 7 6 6 6 8 10 10 10 11 12 11 11 9 8 6 6 8 4 5 6 8 9 11 13 10 8 6 5 6 5 7 7 8
14 15 15 8 10 12 8 5 3 6 4 4 7 8 8 8 10 12 9 9 9 9 9 6 4 5 6 4 4 2 3 4 4 13 15 13 9 6 6 5 5 6 6
18 14 13 11 10 9 8 6 6 4 4 5 6 7 6 7 9 4 1 1 2 2 3 4 4 4 4 5 5 4 2 2 1 5 17 14 18 14 8 4 4 7 8
14 12 11 12 11 8 7 8 8 6 3 3 4 2 3 4 4 2 2 5 1 4 4 4 4 4 3 2 4 4 5 6 3 6 8 7 23 18 12 8 6 7 8
8 11 12 12 9 6 8 6 6 6 5 4 2 2 2 3 4 3 2 1 1 4 4 4 2 4 4 2 3 3 2 3 0 3 5 7 15 15 16 14 9 8 8
11 7 7 5 6 4 5 8 6 7 7 7 6 7 8 8 6 5 4 5 4 3 5 4 1 4 3 3 1 5 2 3 0 2 1 3 7 11 6 12 14 13 10

GFSMA_925_spd_132.txt.gz
Wind_Speed
8 5 4 4 5 7 9 10 9 8 8 2 1 8 14 12 6 5 5 5 4 3 3 4 5 5 6 7 6 6 5 5 4 4 5 6 7 5 3 3 4 5 5
8 3 3 4 7 7 5 0 2 4 6 3 8 10 9 14 3 4 4 4 2 2 2 5 9 12 12 11 10 8 8 7 6 4 4 7 8 7 6 3 2 3 4
10 5 5 8 8 4 0 1 1 4 3 5 5 8 8 7 1 3 1 1 2 4 7 9 12 16 18 21 21 15 10 10 9 7 6 8 10 7 7 5 2 2 3
7 5 6 4 3 2 1 4 10 8 4 7 9 8 8 7 5 4 4 5 5 6 8 10 12 15 18 22 23 19 19 12 10 8 8 9 9 7 8 5 2 1 2
6 5 5 3 1 2 2 3 6 9 2 9 8 8 11 9 4 7 4 4 5 2 4 8 13 16 20 26 26 27 20 16 11 9 9 10 8 8 8 5 1 1 1
6 5 2 1 2 2 5 1 8 10 14 4 9 11 13 11 6 3 3 1 2 6 11 9 14 24 30 28 22 23 18 15 10 8 9 9 9 9 7 4 1 1 0
8 4 5 3 0 2 4 4 2 6 11 9 10 11 5 8 7 6 3 6 3 8 9 13 17 28 28 15 24 23 16 12 7 6 7 6 9 8 3 1 1 1 1
10 7 5 6 5 5 5 5 2 8 7 10 6 5 3 1 1 4 4 10 3 5 5 10 16 13 20 16 15 13 9 7 6 3 2 4 7 6 1 1 2 2 2
12 9 8 6 8 6 4 3 2 6 3 5 6 3 3 2 5 7 7 6 3 4 5 7 13 15 12 13 15 7 8 6 6 3 1 2 5 7 3 2 3 3 4
13 11 10 6 9 4 7 6 7 4 2 3 6 7 4 2 2 4 2 7 4 9 10 8 7 14 12 10 10 8 9 6 5 4 2 3 5 7 6 5 5 6 5
15 13 11 9 7 4 6 2 3 3 1 2 2 5 6 1 2 3 4 9 9 11 14 9 7 9 8 11 9 9 7 5 4 3 3 5 6 7 7 6 6 6 7
17 15 12 13 7 7 6 5 4 4 4 3 2 3 5 3 3 8 4 6 8 9 10 11 10 6 7 9 10 11 8 4 3 3 4 4 6 7 7 7 6 6 6
20 18 15 17 11 9 9 8 7 5 6 6 5 4 4 7 6 10 13 9 6 6 5 7 6 12 5 9 6 9 9 6 5 3 4 4 5 5 5 6 6 6 7
20 16 18 17 16 12 11 10 9 6 6 6 7 9 9 9 6 5 2 1 3 3 1 5 7 1 4 5 7 9 10 9 6 3 3 4 6 6 5 5 5 6 6
21 17 16 20 19 15 12 10 10 9 8 8 9 8 9 9 6 1 3 2 2 1 2 2 2 1 3 8 7 7 9 8 8 6 3 3 5 6 6 5 5 5 5
18 18 21 19 18 16 14 13 13 12 12 11 9 11 8 8 9 8 3 4 3 3 1 2 2 2 0 2 5 6 7 8 9 6 3 2 3 4 4 5 6 6 7
18 16 19 17 17 17 16 15 15 14 14 13 12 10 14 13 12 11 10 6 5 7 6 4 5 4 5 6 5 5 2 3 5 3 1 1 3 5 4 5 8 9 10
19 19 19 18 18 16 15 16 17 16 15 15 13 13 15 12 13 12 12 9 7 5 4 4 3 5 5 4 2 2 2 1 3 4 3 3 3 4 4 6 8 9 10
23 21 18 17 17 15 15 16 16 15 15 14 13 14 15 12 13 12 12 13 10 10 9 7 6 6 7 7 3 3 4 4 4 3 4 3 2 4 4 5 7 8 8
25 21 18 17 17 15 14 13 13 14 12 11 11 11 11 11 12 12 11 11 11 10 10 9 8 8 6 6 7 6 6 8 7 6 6 3 4 4 4 3 4 6 6
28 25 19 17 16 14 14 14 13 13 10 9 8 7 9 9 8 8 10 11 11 12 11 10 8 6 7 7 6 3 6 8 10 10 10 8 6 6 7 4 2 3 3
27 22 20 18 16 16 14 12 9 10 11 9 7 7 8 8 11 11 12 9 8 9 10 10 8 7 8 8 7 6 3 4 4 10 12 12 11 9 8 7 3 3 2
29 22 21 19 17 19 19 14 10 10 10 8 7 6 7 7 7 6 5 3 2 3 4 6 7 6 6 5 6 6 5 4 4 7 16 11 16 13 10 8 4 5 5
24 22 22 21 19 16 15 11 8 8 7 6 5 4 4 3 2 1 3 3 2 2 3 4 5 4 5 4 5 7 9 7 6 4 13 6 15 18 14 11 7 6 7
22 19 21 21 16 11 11 9 7 6 7 6 4 5 4 3 3 1 0 1 3 3 3 4 4 3 5 4 5 6 7 6 3 3 5 5 6 14 15 14 11 9 8
22 22 20 14 10 5 2 4 8 12 13 11 10 9 7 7 5 3 4 3 3 4 7 6 5 4 5 5 5 6 10 7 1 3 3 3 6 10 4 15 17 14 12